Wetterdaten: Mittwoch, 27.08.2014
Datum Zeit Temp. Aussen +5cm Feuchte Auss Luftdruck Regen Sonnenschein Regendauer UV Solar Windben
27.08.2014 00:00 13,6 C 12,2 C 99 % 1009,3 hPa 0,0 l/m 0 min 0 min 0,0 UV-I 0 W/m 0,0 km/h (0 Bft)
27.08.2014 00:02 13,6 C 12,2 C 99 % 1009,3 hPa 0,0 l/m 0 min 0 min 0,0 UV-I 0 W/m 0,0 km/h (0 Bft)
27.08.2014 00:05 13,6 C 12,2 C 99 % 1009,3 hPa 0,0 l/m 0 min 0 min 0,0 UV-I 0 W/m 0,0 km/h (0 Bft)
27.08.2014 00:06 13,6 C 12,2 C 99 % 1009,3 hPa 0,0 l/m 0 min 0 min 0,0 UV-I 0 W/m 0,0 km/h (0 Bft)
27.08.2014 00:08 13,6 C 12,2 C 99 % 1009,3 hPa 0,0 l/m 0 min 0 min 0,0 UV-I 0 W/m 0,0 km/h (0 Bft)
27.08.2014 00:10 13,6 C 12,2 C 99 % 1009,3 hPa 0,0 l/m 0 min 0 min 0,0 UV-I 0 W/m 3,5 km/h (1 Bft)
27.08.2014 00:12 13,6 C 12,2 C 99 % 1009,3 hPa 0,0 l/m 0 min 0 min 0,0 UV-I 0 W/m 0,0 km/h (0 Bft)
27.08.2014 00:14 13,6 C 12,2 C 99 % 1009,3 hPa 0,0 l/m 0 min 0 min 0,0 UV-I 0 W/m 10,7 km/h (2 Bft)
27.08.2014 00:16 13,6 C 12,2 C 99 % 1009,3 hPa 0,0 l/m 0 min 0 min 0,0 UV-I 0 W/m 10,7 km/h (2 Bft)
27.08.2014 00:18 13,6 C 12,2 C 99 % 1009,4 hPa 0,0 l/m 0 min 0 min 0,0 UV-I 0 W/m 3,5 km/h (1 Bft)
27.08.2014 00:20 13,6 C 12,2 C 99 % 1009,4 hPa 0,0 l/m 0 min 0 min 0,0 UV-I 0 W/m 14,2 km/h (3 Bft)
27.08.2014 00:22 13,6 C 12,2 C 99 % 1009,4 hPa 0,0 l/m 0 min 0 min 0,0 UV-I 0 W/m 3,5 km/h (1 Bft)
27.08.2014 00:24 13,6 C 12,2 C 99 % 1009,5 hPa 0,0 l/m 0 min 0 min 0,0 UV-I 0 W/m 3,5 km/h (1 Bft)
27.08.2014 00:26 13,6 C 12,2 C 99 % 1009,5 hPa 0,0 l/m 0 min 0 min 0,0 UV-I 0 W/m 10,7 km/h (2 Bft)
27.08.2014 00:28 13,6 C 12,2 C 99 % 1009,5 hPa 0,0 l/m 0 min 0 min 0,0 UV-I 0 W/m 14,2 km/h (3 Bft)
27.08.2014 00:30 13,6 C 12,2 C 99 % 1009,6 hPa 0,0 l/m 0 min 0 min 0,0 UV-I 0 W/m 0,0 km/h (0 Bft)
27.08.2014 00:32 13,6 C 12,2 C 99 % 1009,5 hPa 0,0 l/m 0 min 0 min 0,0 UV-I 0 W/m 14,2 km/h (3 Bft)
27.08.2014 00:34 13,6 C 12,2 C 99 % 1009,6 hPa 0,0 l/m 0 min 0 min 0,0 UV-I 0 W/m 14,2 km/h (3 Bft)
27.08.2014 00:36 13,6 C 12,2 C 99 % 1009,6 hPa 0,0 l/m 0 min 0 min 0,0 UV-I 0 W/m 14,2 km/h (3 Bft)
27.08.2014 00:38 13,6 C 12,2 C 99 % 1009,6 hPa 0,0 l/m 0 min 0 min 0,0 UV-I 0 W/m 14,2 km/h (3 Bft)
27.08.2014 00:40 13,5 C 12,2 C 99 % 1009,7 hPa 0,0 l/m 0 min 0 min 0,0 UV-I 0 W/m 14,2 km/h (3 Bft)
27.08.2014 00:42 13,5 C 12,2 C 99 % 1009,7 hPa 0,0 l/m 0 min 0 min 0,0 UV-I 0 W/m 10,7 km/h (2 Bft)
27.08.2014 00:44 13,5 C 12,2 C 99 % 1009,7 hPa 0,0 l/m 0 min 0 min 0,0 UV-I 0 W/m 0,0 km/h (0 Bft)
27.08.2014 00:46 13,4 C 12,2 C 98 % 1009,7 hPa 0,0 l/m 0 min 0 min 0,0 UV-I 0 W/m 10,7 km/h (2 Bft)
27.08.2014 00:48 13,4 C 11,7 C 98 % 1009,7 hPa 0,0 l/m 0 min 0 min 0,0 UV-I 0 W/m 0,0 km/h (0 Bft)
27.08.2014 00:50 13,4 C 11,7 C 98 % 1009,8 hPa 0,0 l/m 0 min 0 min 0,0 UV-I 0 W/m 0,0 km/h (0 Bft)
27.08.2014 00:52 13,4 C 11,7 C 98 % 1009,8 hPa 0,0 l/m 0 min 0 min 0,0 UV-I 0 W/m 0,0 km/h (0 Bft)
27.08.2014 00:54 13,3 C 11,7 C 98 % 1009,9 hPa 0,0 l/m 0 min 0 min 0,0 UV-I 0 W/m 0,0 km/h (0 Bft)
27.08.2014 00:56 13,3 C 11,7 C 98 % 1009,9 hPa 0,0 l/m 0 min 0 min 0,0 UV-I 0 W/m 0,0 km/h (0 Bft)
27.08.2014 00:58 13,3 C 11,7 C 98 % 1010,0 hPa 0,0 l/m 0 min 0 min 0,0 UV-I 0 W/m 0,0 km/h (0 Bft)
27.08.2014 01:00 13,3 C 11,7 C 98 % 1010,0 hPa 0,0 l/m 0 min 0 min 0,0 UV-I 0 W/m 0,0 km/h (0 Bft)
27.08.2014 01:02 13,3 C 11,7 C 98 % 1010,0 hPa 0,0 l/m 0 min 0 min 0,0 UV-I 0 W/m 0,0 km/h (0 Bft)
27.08.2014 01:04 13,2 C 11,7 C 98 % 1010,0 hPa 0,0 l/m 0 min 0 min 0,0 UV-I 0 W/m 0,0 km/h (0 Bft)
27.08.2014 01:06 13,2 C 11,7 C 98 % 1010,0 hPa 0,0 l/m 0 min 0 min 0,0 UV-I 0 W/m 0,0 km/h (0 Bft)
27.08.2014 01:08 13,2 C 11,7 C 98 % 1010,1 hPa 0,0 l/m 0 min 0 min 0,0 UV-I 0 W/m 0,0 km/h (0 Bft)
27.08.2014 01:10 13,2 C 11,7 C 98 % 1010,1 hPa 0,0 l/m 0 min 0 min 0,0 UV-I 0 W/m 0,0 km/h (0 Bft)
27.08.2014 01:12 13,1 C 11,7 C 98 % 1010,2 hPa 0,0 l/m 0 min 0 min 0,0 UV-I 0 W/m 3,5 km/h (1 Bft)
27.08.2014 01:14 13,1 C 11,7 C 98 % 1010,1 hPa 0,0 l/m 0 min 0 min 0,0 UV-I 0 W/m 0,0 km/h (0 Bft)
27.08.2014 01:16 13,1 C 11,7 C 98 % 1010,2 hPa 0,0 l/m 0 min 0 min 0,0 UV-I 0 W/m 0,0 km/h (0 Bft)
27.08.2014 01:18 13,1 C 11,7 C 98 % 1010,2 hPa 0,0 l/m 0 min 0 min 0,0 UV-I 0 W/m 3,5 km/h (1 Bft)
27.08.2014 01:20 13,0 C 11,7 C 98 % 1010,1 hPa 0,0 l/m 0 min 0 min 0,0 UV-I 0 W/m 0,0 km/h (0 Bft)
27.08.2014 01:22 13,0 C 11,7 C 98 % 1010,3 hPa 0,0 l/m 0 min 0 min 0,0 UV-I 0 W/m 0,0 km/h (0 Bft)
27.08.2014 01:24 13,0 C 11,7 C 98 % 1010,3 hPa 0,0 l/m 0 min 0 min 0,0 UV-I 0 W/m 0,0 km/h (0 Bft)
27.08.2014 01:26 12,9 C 11,7 C 98 % 1010,3 hPa 0,0 l/m 0 min 0 min 0,0 UV-I 0 W/m 0,0 km/h (0 Bft)
27.08.2014 01:28 12,9 C 11,7 C 98 % 1010,3 hPa 0,0 l/m 0 min 0 min 0,0 UV-I 0 W/m 0,0 km/h (0 Bft)
27.08.2014 01:30 12,9 C 11,7 C 98 % 1010,3 hPa 0,0 l/m 0 min 0 min 0,0 UV-I 0 W/m 0,0 km/h (0 Bft)
27.08.2014 01:32 12,9 C 11,7 C 98 % 1010,4 hPa 0,0 l/m 0 min 0 min 0,0 UV-I 0 W/m 0,0 km/h (0 Bft)
27.08.2014 01:34 12,9 C 11,7 C 98 % 1010,3 hPa 0,0 l/m 0 min 0 min 0,0 UV-I 0 W/m 10,7 km/h (2 Bft)
27.08.2014 01:36 12,8 C 11,7 C 98 % 1010,3 hPa 0,0 l/m 0 min 0 min 0,0 UV-I 0 W/m 14,2 km/h (3 Bft)
27.08.2014 01:38 12,8 C 11,7 C 98 % 1010,3 hPa 0,0 l/m 0 min 0 min 0,0 UV-I 0 W/m 3,5 km/h (1 Bft)
27.08.2014 01:40 12,8 C 11,7 C 98 % 1010,4 hPa 0,0 l/m 0 min 0 min 0,0 UV-I 0 W/m 0,0 km/h (0 Bft)
27.08.2014 01:42 12,8 C 11,7 C 98 % 1010,4 hPa 0,0 l/m 0 min 0 min 0,0 UV-I 0 W/m 0,0 km/h (0 Bft)
27.08.2014 01:44 12,8 C 11,7 C 98 % 1010,4 hPa 0,0 l/m 0 min 0 min 0,0 UV-I 0 W/m 0,0 km/h (0 Bft)
27.08.2014 01:46 12,7 C 11,7 C 98 % 1010,4 hPa 0,0 l/m 0 min 0 min 0,0 UV-I 0 W/m 0,0 km/h (0 Bft)
27.08.2014 01:48 12,7 C 11,7 C 98 % 1010,4 hPa 0,0 l/m 0 min 0 min 0,0 UV-I 0 W/m 0,0 km/h (0 Bft)
27.08.2014 01:50 12,7 C 11,7 C 98 % 1010,4 hPa 0,0 l/m 0 min 0 min 0,0 UV-I 0 W/m 0,0 km/h (0 Bft)
27.08.2014 01:52 12,7 C 11,1 C 98 % 1010,4 hPa 0,0 l/m 0 min 0 min 0,0 UV-I 0 W/m 0,0 km/h (0 Bft)
27.08.2014 01:54 12,7 C 11,1 C 98 % 1010,4 hPa 0,0 l/m 0 min 0 min 0,0 UV-I 0 W/m 0,0 km/h (0 Bft)
27.08.2014 01:56 12,7 C 11,1 C 98 % 1010,4 hPa 0,0 l/m 0 min 0 min 0,0 UV-I 0 W/m 0,0 km/h (0 Bft)
27.08.2014 01:58 12,7 C 11,1 C 98 % 1010,4 hPa 0,0 l/m 0 min 0 min 0,0 UV-I 0 W/m 0,0 km/h (0 Bft)
27.08.2014 02:00 12,6 C 11,1 C 98 % 1010,5 hPa 0,0 l/m 0 min 0 min 0,0 UV-I 0 W/m 0,0 km/h (0 Bft)
27.08.2014 02:02 12,6 C 11,1 C 98 % 1010,5 hPa 0,0 l/m 0 min 0 min 0,0 UV-I 0 W/m 0,0 km/h (0 Bft)
27.08.2014 02:04 12,6 C 11,1 C 98 % 1010,5 hPa 0,0 l/m 0 min 0 min 0,0 UV-I 0 W/m 0,0 km/h (0 Bft)
27.08.2014 02:06 12,6 C 11,1 C 98 % 1010,5 hPa 0,0 l/m 0 min 0 min 0,0 UV-I 0 W/m 0,0 km/h (0 Bft)
27.08.2014 02:08 12,6 C 11,1 C 98 % 1010,5 hPa 0,0 l/m 0 min 0 min 0,0 UV-I 0 W/m 0,0 km/h (0 Bft)
27.08.2014 02:10 12,5 C 11,1 C 98 % 1010,6 hPa 0,0 l/m 0 min 0 min 0,0 UV-I 0 W/m 0,0 km/h (0 Bft)
27.08.2014 02:12 12,5 C 11,1 C 98 % 1010,6 hPa 0,0 l/m 0 min 0 min 0,0 UV-I 0 W/m 0,0 km/h (0 Bft)
27.08.2014 02:14 12,5 C 11,1 C 98 % 1010,6 hPa 0,0 l/m 0 min 0 min 0,0 UV-I 0 W/m 0,0 km/h (0 Bft)
27.08.2014 02:16 12,5 C 11,1 C 98 % 1010,6 hPa 0,0 l/m 0 min 0 min 0,0 UV-I 0 W/m 0,0 km/h (0 Bft)
27.08.2014 02:18 12,4 C 11,1 C 98 % 1010,7 hPa 0,0 l/m 0 min 0 min 0,0 UV-I 0 W/m 0,0 km/h (0 Bft)
27.08.2014 02:20 12,4 C 11,1 C 98 % 1010,7 hPa 0,0 l/m 0 min 0 min 0,0 UV-I 0 W/m 0,0 km/h (0 Bft)
27.08.2014 02:22 12,4 C 11,1 C 98 % 1010,7 hPa 0,0 l/m 0 min 0 min 0,0 UV-I 0 W/m 0,0 km/h (0 Bft)
27.08.2014 02:24 12,4 C 11,1 C 98 % 1010,7 hPa 0,0 l/m 0 min 0 min 0,0 UV-I 0 W/m 0,0 km/h (0 Bft)
27.08.2014 02:26 12,4 C 11,1 C 98 % 1010,7 hPa 0,0 l/m 0 min 0 min 0,0 UV-I 0 W/m 0,0 km/h (0 Bft)
27.08.2014 02:28 12,3 C 11,1 C 98 % 1010,8 hPa 0,0 l/m 0 min 0 min 0,0 UV-I 0 W/m 0,0 km/h (0 Bft)
27.08.2014 02:30 12,3 C 11,1 C 98 % 1010,8 hPa 0,0 l/m 0 min 0 min 0,0 UV-I 0 W/m 3,5 km/h (1 Bft)
27.08.2014 02:32 12,3 C 11,1 C 98 % 1010,8 hPa 0,0 l/m 0 min 0 min 0,0 UV-I 0 W/m 0,0 km/h (0 Bft)
27.08.2014 02:34 12,3 C 10,6 C 98 % 1010,8 hPa 0,0 l/m 0 min 0 min 0,0 UV-I 0 W/m 0,0 km/h (0 Bft)
27.08.2014 02:36 12,3 C 10,6 C 98 % 1010,8 hPa 0,0 l/m 0 min 0 min 0,0 UV-I 0 W/m 0,0 km/h (0 Bft)
27.08.2014 02:38 12,2 C 10,6 C 98 % 1010,8 hPa 0,0 l/m 0 min 0 min 0,0 UV-I 0 W/m 0,0 km/h (0 Bft)
27.08.2014 02:40 12,2 C 10,6 C 98 % 1010,7 hPa 0,0 l/m 0 min 0 min 0,0 UV-I 0 W/m 0,0 km/h (0 Bft)
27.08.2014 02:42 12,2 C 10,6 C 98 % 1010,8 hPa 0,0 l/m 0 min 0 min 0,0 UV-I 0 W/m 10,7 km/h (2 Bft)
27.08.2014 02:44 12,2 C 10,6 C 98 % 1010,8 hPa 0,0 l/m 0 min 0 min 0,0 UV-I 0 W/m 10,7 km/h (2 Bft)
27.08.2014 02:46 12,1 C 10,6 C 98 % 1010,8 hPa 0,0 l/m 0 min 0 min 0,0 UV-I 0 W/m 10,7 km/h (2 Bft)
27.08.2014 02:48 12,1 C 10,6 C 98 % 1010,9 hPa 0,0 l/m 0 min 0 min 0,0 UV-I 0 W/m 7,1 km/h (2 Bft)
27.08.2014 02:50 12,1 C 10,6 C 98 % 1010,8 hPa 0,0 l/m 0 min 0 min 0,0 UV-I 0 W/m 7,1 km/h (2 Bft)
27.08.2014 02:52 12,1 C 10,6 C 98 % 1010,8 hPa 0,0 l/m 0 min 0 min 0,0 UV-I 0 W/m 3,5 km/h (1 Bft)
27.08.2014 02:54 12,0 C 10,6 C 98 % 1010,9 hPa 0,0 l/m 0 min 0 min 0,0 UV-I 0 W/m 10,7 km/h (2 Bft)
27.08.2014 02:56 11,9 C 10,6 C 98 % 1011,0 hPa 0,0 l/m 0 min 0 min 0,0 UV-I 0 W/m 14,2 km/h (3 Bft)
27.08.2014 02:58 11,9 C 10,6 C 98 % 1011,0 hPa 0,0 l/m 0 min 0 min 0,0 UV-I 0 W/m 0,0 km/h (0 Bft)
27.08.2014 03:00 11,9 C 10,6 C 98 % 1011,0 hPa 0,0 l/m 0 min 0 min 0,0 UV-I 0 W/m 0,0 km/h (0 Bft)
27.08.2014 03:02 11,9 C 10,6 C 98 % 1011,0 hPa 0,0 l/m 0 min 0 min 0,0 UV-I 0 W/m 0,0 km/h (0 Bft)
27.08.2014 03:04 11,8 C 10,6 C 98 % 1011,0 hPa 0,0 l/m 0 min 0 min 0,0 UV-I 0 W/m 0,0 km/h (0 Bft)
27.08.2014 03:06 11,8 C 10,6 C 98 % 1011,1 hPa 0,0 l/m 0 min 0 min 0,0 UV-I 0 W/m 0,0 km/h (0 Bft)
27.08.2014 03:08 11,8 C 10,6 C 98 % 1011,1 hPa 0,0 l/m 0 min 0 min 0,0 UV-I 0 W/m 0,0 km/h (0 Bft)
27.08.2014 03:10 11,8 C 10,6 C 98 % 1011,2 hPa 0,0 l/m 0 min 0 min 0,0 UV-I 0 W/m 0,0 km/h (0 Bft)
27.08.2014 03:12 11,8 C 10,6 C 98 % 1011,2 hPa 0,0 l/m 0 min 0 min 0,0 UV-I 0 W/m 0,0 km/h (0 Bft)
27.08.2014 03:14 11,7 C 10,0 C 98 % 1011,2 hPa 0,0 l/m 0 min 0 min 0,0 UV-I 0 W/m 0,0 km/h (0 Bft)
27.08.2014 03:16 11,7 C 10,0 C 98 % 1011,2 hPa 0,0 l/m 0 min 0 min 0,0 UV-I 0 W/m 0,0 km/h (0 Bft)
27.08.2014 03:18 11,7 C 10,0 C 98 % 1011,2 hPa 0,0 l/m 0 min 0 min 0,0 UV-I 0 W/m 0,0 km/h (0 Bft)
27.08.2014 03:20 11,7 C 10,0 C 98 % 1011,2 hPa 0,0 l/m 0 min 0 min 0,0 UV-I 0 W/m 0,0 km/h (0 Bft)
27.08.2014 03:22 11,6 C 10,0 C 98 % 1011,2 hPa 0,0 l/m 0 min 0 min 0,0 UV-I 0 W/m 0,0 km/h (0 Bft)
27.08.2014 03:24 11,6 C 10,0 C 98 % 1011,2 hPa 0,0 l/m 0 min 0 min 0,0 UV-I 0 W/m 0,0 km/h (0 Bft)
27.08.2014 03:26 11,6 C 10,0 C 98 % 1011,3 hPa 0,0 l/m 0 min 0 min 0,0 UV-I 0 W/m 0,0 km/h (0 Bft)
27.08.2014 03:28 11,6 C 10,0 C 98 % 1011,3 hPa 0,0 l/m 0 min 0 min 0,0 UV-I 0 W/m 0,0 km/h (0 Bft)
27.08.2014 03:30 11,5 C 10,0 C 98 % 1011,3 hPa 0,0 l/m 0 min 0 min 0,0 UV-I 0 W/m 0,0 km/h (0 Bft)
27.08.2014 03:32 11,5 C 10,0 C 98 % 1011,3 hPa 0,0 l/m 0 min 0 min 0,0 UV-I 0 W/m 0,0 km/h (0 Bft)
27.08.2014 03:34 11,4 C 10,0 C 98 % 1011,3 hPa 0,0 l/m 0 min 0 min 0,0 UV-I 0 W/m 0,0 km/h (0 Bft)
27.08.2014 03:36 11,4 C 9,4 C 98 % 1011,3 hPa 0,0 l/m 0 min 0 min 0,0 UV-I 0 W/m 0,0 km/h (0 Bft)
27.08.2014 03:38 11,4 C 9,4 C 98 % 1011,3 hPa 0,0 l/m 0 min 0 min 0,0 UV-I 0 W/m 0,0 km/h (0 Bft)
27.08.2014 03:40 11,4 C 9,4 C 98 % 1011,3 hPa 0,0 l/m 0 min 0 min 0,0 UV-I 0 W/m 0,0 km/h (0 Bft)
27.08.2014 03:42 11,3 C 9,4 C 98 % 1011,4 hPa 0,0 l/m 0 min 0 min 0,0 UV-I 0 W/m 0,0 km/h (0 Bft)
27.08.2014 03:44 11,3 C 9,4 C 98 % 1011,4 hPa 0,0 l/m 0 min 0 min 0,0 UV-I 0 W/m 0,0 km/h (0 Bft)
27.08.2014 03:46 11,2 C 9,4 C 98 % 1011,4 hPa 0,0 l/m 0 min 0 min 0,0 UV-I 0 W/m 0,0 km/h (0 Bft)
27.08.2014 03:48 11,2 C 9,4 C 98 % 1011,4 hPa 0,0 l/m 0 min 0 min 0,0 UV-I 0 W/m 0,0 km/h (0 Bft)
27.08.2014 03:50 11,2 C 9,4 C 98 % 1011,4 hPa 0,0 l/m 0 min 0 min 0,0 UV-I 0 W/m 0,0 km/h (0 Bft)
27.08.2014 03:52 11,1 C 9,4 C 98 % 1011,5 hPa 0,0 l/m 0 min 0 min 0,0 UV-I 0 W/m 0,0 km/h (0 Bft)
27.08.2014 03:54 11,1 C 9,4 C 98 % 1011,5 hPa 0,0 l/m 0 min 0 min 0,0 UV-I 0 W/m 0,0 km/h (0 Bft)
27.08.2014 03:56 11,1 C 8,9 C 98 % 1011,6 hPa 0,0 l/m 0 min 0 min 0,0 UV-I 0 W/m 0,0 km/h (0 Bft)
27.08.2014 03:58 11,0 C 8,9 C 98 % 1011,6 hPa 0,0 l/m 0 min 0 min 0,0 UV-I 0 W/m 0,0 km/h (0 Bft)
27.08.2014 04:00 10,9 C 8,9 C 98 % 1011,7 hPa 0,0 l/m 0 min 0 min 0,0 UV-I 0 W/m 0,0 km/h (0 Bft)
27.08.2014 04:02 10,9 C 8,9 C 98 % 1011,7 hPa 0,0 l/m 0 min 0 min 0,0 UV-I 0 W/m 0,0 km/h (0 Bft)
27.08.2014 04:04 10,9 C 8,9 C 98 % 1011,7 hPa 0,0 l/m 0 min 0 min 0,0 UV-I 0 W/m 0,0 km/h (0 Bft)
27.08.2014 04:06 10,8 C 8,9 C 98 % 1011,7 hPa 0,0 l/m 0 min 0 min 0,0 UV-I 0 W/m 0,0 km/h (0 Bft)
27.08.2014 04:08 10,8 C 8,9 C 98 % 1011,8 hPa 0,0 l/m 0 min 0 min 0,0 UV-I 0 W/m 0,0 km/h (0 Bft)
27.08.2014 04:10 10,8 C 8,9 C 98 % 1011,8 hPa 0,0 l/m 0 min 0 min 0,0 UV-I 0 W/m 0,0 km/h (0 Bft)
27.08.2014 04:12 10,7 C 8,9 C 98 % 1011,8 hPa 0,0 l/m 0 min 0 min 0,0 UV-I 0 W/m 0,0 km/h (0 Bft)
27.08.2014 04:14 10,7 C 8,9 C 98 % 1011,8 hPa 0,0 l/m 0 min 0 min 0,0 UV-I 0 W/m 0,0 km/h (0 Bft)
27.08.2014 04:16 10,7 C 8,9 C 98 % 1011,8 hPa 0,0 l/m 0 min 0 min 0,0 UV-I 0 W/m 0,0 km/h (0 Bft)
27.08.2014 04:18 10,6 C 8,9 C 98 % 1012,0 hPa 0,0 l/m 0 min 0 min 0,0 UV-I 0 W/m 0,0 km/h (0 Bft)
27.08.2014 04:20 10,6 C 8,9 C 98 % 1012,0 hPa 0,0 l/m 0 min 0 min 0,0 UV-I 0 W/m 0,0 km/h (0 Bft)
27.08.2014 04:22 10,6 C 8,9 C 98 % 1012,0 hPa 0,0 l/m 0 min 0 min 0,0 UV-I 0 W/m 0,0 km/h (0 Bft)
27.08.2014 04:24 10,5 C 8,9 C 98 % 1011,9 hPa 0,0 l/m 0 min 0 min 0,0 UV-I 0 W/m 0,0 km/h (0 Bft)
27.08.2014 04:26 10,4 C 8,9 C 98 % 1012,0 hPa 0,0 l/m 0 min 0 min 0,0 UV-I 0 W/m 0,0 km/h (0 Bft)
27.08.2014 04:28 10,4 C 8,9 C 98 % 1012,0 hPa 0,0 l/m 0 min 0 min 0,0 UV-I 0 W/m 0,0 km/h (0 Bft)
27.08.2014 04:30 10,4 C 8,9 C 98 % 1012,1 hPa 0,0 l/m 0 min 0 min 0,0 UV-I 0 W/m 0,0 km/h (0 Bft)
27.08.2014 04:32 10,4 C 8,9 C 98 % 1012,1 hPa 0,0 l/m 0 min 0 min 0,0 UV-I 0 W/m 0,0 km/h (0 Bft)
27.08.2014 04:34 10,3 C 8,9 C 98 % 1012,1 hPa 0,0 l/m 0 min 0 min 0,0 UV-I 0 W/m 0,0 km/h (0 Bft)
27.08.2014 04:36 10,3 C 8,9 C 98 % 1012,1 hPa 0,0 l/m 0 min 0 min 0,0 UV-I 0 W/m 0,0 km/h (0 Bft)
27.08.2014 04:38 10,3 C 8,3 C 98 % 1012,1 hPa 0,0 l/m 0 min 0 min 0,0 UV-I 0 W/m 0,0 km/h (0 Bft)
27.08.2014 04:40 10,3 C 8,3 C 98 % 1012,1 hPa 0,0 l/m 0 min 0 min 0,0 UV-I 0 W/m 0,0 km/h (0 Bft)
27.08.2014 04:42 10,2 C 8,3 C 98 % 1012,2 hPa 0,0 l/m 0 min 0 min 0,0 UV-I 0 W/m 0,0 km/h (0 Bft)
27.08.2014 04:44 10,2 C 8,3 C 98 % 1012,1 hPa 0,0 l/m 0 min 0 min 0,0 UV-I 0 W/m 0,0 km/h (0 Bft)
27.08.2014 04:46 10,2 C 8,3 C 98 % 1012,1 hPa 0,0 l/m 0 min 0 min 0,0 UV-I 0 W/m 0,0 km/h (0 Bft)
27.08.2014 04:48 10,2 C 8,3 C 98 % 1012,2 hPa 0,0 l/m 0 min 0 min 0,0 UV-I 0 W/m 0,0 km/h (0 Bft)
27.08.2014 04:50 10,1 C 8,3 C 98 % 1012,2 hPa 0,0 l/m 0 min 0 min 0,0 UV-I 0 W/m 0,0 km/h (0 Bft)
27.08.2014 04:52 10,1 C 8,3 C 98 % 1012,2 hPa 0,0 l/m 0 min 0 min 0,0 UV-I 0 W/m 0,0 km/h (0 Bft)
27.08.2014 04:54 10,1 C 8,3 C 98 % 1012,2 hPa 0,0 l/m 0 min 0 min 0,0 UV-I 0 W/m 0,0 km/h (0 Bft)
27.08.2014 04:56 10,0 C 8,3 C 98 % 1012,3 hPa 0,0 l/m 0 min 0 min 0,0 UV-I 0 W/m 0,0 km/h (0 Bft)
27.08.2014 04:58 10,0 C 8,3 C 98 % 1012,3 hPa 0,0 l/m 0 min 0 min 0,0 UV-I 0 W/m 0,0 km/h (0 Bft)
27.08.2014 05:00 9,9 C 8,3 C 98 % 1012,3 hPa 0,0 l/m 0 min 0 min 0,0 UV-I 0 W/m 0,0 km/h (0 Bft)
27.08.2014 05:02 9,9 C 8,3 C 98 % 1012,3 hPa 0,0 l/m 0 min 0 min 0,0 UV-I 0 W/m 0,0 km/h (0 Bft)
27.08.2014 05:04 9,9 C 8,3 C 98 % 1012,4 hPa 0,0 l/m 0 min 0 min 0,0 UV-I 0 W/m 0,0 km/h (0 Bft)
27.08.2014 05:06 9,9 C 8,3 C 98 % 1012,4 hPa 0,0 l/m 0 min 0 min 0,0 UV-I 0 W/m 0,0 km/h (0 Bft)
27.08.2014 05:08 9,8 C 8,3 C 98 % 1012,5 hPa 0,0 l/m 0 min 0 min 0,0 UV-I 0 W/m 0,0 km/h (0 Bft)
27.08.2014 05:10 9,8 C 7,8 C 98 % 1012,6 hPa 0,0 l/m 0 min 0 min 0,0 UV-I 0 W/m 0,0 km/h (0 Bft)
27.08.2014 05:12 9,8 C 7,8 C 98 % 1012,6 hPa 0,0 l/m 0 min 0 min 0,0 UV-I 0 W/m 0,0 km/h (0 Bft)
27.08.2014 05:14 9,7 C 7,8 C 98 % 1012,6 hPa 0,0 l/m 0 min 0 min 0,0 UV-I 0 W/m 0,0 km/h (0 Bft)
27.08.2014 05:16 9,7 C 8,3 C 98 % 1012,5 hPa 0,0 l/m 0 min 0 min 0,0 UV-I 0 W/m 0,0 km/h (0 Bft)
27.08.2014 05:18 9,7 C 8,3 C 98 % 1012,6 hPa 0,0 l/m 0 min 0 min 0,0 UV-I 0 W/m 0,0 km/h (0 Bft)
27.08.2014 05:20 9,7 C 8,3 C 98 % 1012,6 hPa 0,0 l/m 0 min 0 min 0,0 UV-I 0 W/m 0,0 km/h (0 Bft)
27.08.2014 05:22 9,7 C 7,8 C 98 % 1012,5 hPa 0,0 l/m 0 min 0 min 0,0 UV-I 0 W/m 0,0 km/h (0 Bft)
27.08.2014 05:24 9,6 C 7,8 C 98 % 1012,6 hPa 0,0 l/m 0 min 0 min 0,0 UV-I 0 W/m 0,0 km/h (0 Bft)
27.08.2014 05:26 9,6 C 7,8 C 98 % 1012,6 hPa 0,0 l/m 0 min 0 min 0,0 UV-I 0 W/m 0,0 km/h (0 Bft)
27.08.2014 05:28 9,6 C 7,8 C 98 % 1012,6 hPa 0,0 l/m 0 min 0 min 0,0 UV-I 0 W/m 0,0 km/h (0 Bft)
27.08.2014 05:30 9,6 C 7,8 C 98 % 1012,6 hPa 0,0 l/m 0 min 0 min 0,0 UV-I 0 W/m 0,0 km/h (0 Bft)
27.08.2014 05:32 9,5 C 7,8 C 98 % 1012,6 hPa 0,0 l/m 0 min 0 min 0,0 UV-I 0 W/m 0,0 km/h (0 Bft)
27.08.2014 05:34 9,5 C 7,8 C 98 % 1012,6 hPa 0,0 l/m 0 min 0 min 0,0 UV-I 0 W/m 0,0 km/h (0 Bft)
27.08.2014 05:36 9,4 C 7,8 C 98 % 1012,7 hPa 0,0 l/m 0 min 0 min 0,0 UV-I 0 W/m 0,0 km/h (0 Bft)
27.08.2014 05:38 9,4 C 7,8 C 98 % 1012,7 hPa 0,0 l/m 0 min 0 min 0,0 UV-I 0 W/m 0,0 km/h (0 Bft)
27.08.2014 05:40 9,4 C 7,8 C 98 % 1012,7 hPa 0,0 l/m 0 min 0 min 0,0 UV-I 0 W/m 0,0 km/h (0 Bft)
27.08.2014 05:42 9,4 C 7,8 C 98 % 1012,7 hPa 0,0 l/m 0 min 0 min 0,0 UV-I 0 W/m 0,0 km/h (0 Bft)
27.08.2014 05:44 9,3 C 7,8 C 98 % 1012,7 hPa 0,0 l/m 0 min 0 min 0,0 UV-I 0 W/m 0,0 km/h (0 Bft)
27.08.2014 05:46 9,3 C 7,8 C 98 % 1012,7 hPa 0,0 l/m 0 min 0 min 0,0 UV-I 0 W/m 0,0 km/h (0 Bft)
27.08.2014 05:48 9,3 C 7,8 C 98 % 1012,7 hPa 0,0 l/m 0 min 0 min 0,0 UV-I 0 W/m 0,0 km/h (0 Bft)
27.08.2014 05:50 9,3 C 7,8 C 98 % 1012,7 hPa 0,0 l/m 0 min 0 min 0,0 UV-I 0 W/m 0,0 km/h (0 Bft)
27.08.2014 05:52 9,2 C 7,8 C 98 % 1012,7 hPa 0,0 l/m 0 min 0 min 0,0 UV-I 0 W/m 0,0 km/h (0 Bft)
27.08.2014 05:54 9,2 C 7,8 C 98 % 1012,7 hPa 0,0 l/m 0 min 0 min 0,0 UV-I 0 W/m 0,0 km/h (0 Bft)
27.08.2014 05:56 9,2 C 7,8 C 98 % 1012,8 hPa 0,0 l/m 0 min 0 min 0,0 UV-I 0 W/m 0,0 km/h (0 Bft)
27.08.2014 05:58 9,2 C 7,8 C 98 % 1012,7 hPa 0,0 l/m 0 min 0 min 0,0 UV-I 0 W/m 0,0 km/h (0 Bft)
27.08.2014 06:00 9,1 C 7,8 C 98 % 1012,8 hPa 0,0 l/m 0 min 0 min 0,0 UV-I 0 W/m 0,0 km/h (0 Bft)
27.08.2014 06:02 9,1 C 7,8 C 97 % 1012,8 hPa 0,0 l/m 0 min 0 min 0,0 UV-I 0 W/m 0,0 km/h (0 Bft)
27.08.2014 06:06 9,1 C 7,8 C 97 % 1012,9 hPa 0,0 l/m 0 min 0 min 0,0 UV-I 0 W/m 0,0 km/h (0 Bft)
27.08.2014 06:08 9,0 C 7,8 C 97 % 1013,0 hPa 0,0 l/m 0 min 0 min 0,0 UV-I 0 W/m 0,0 km/h (0 Bft)
27.08.2014 06:10 9,0 C 7,2 C 97 % 1012,9 hPa 0,0 l/m 0 min 0 min 0,0 UV-I 0 W/m 0,0 km/h (0 Bft)
27.08.2014 06:12 8,9 C 7,2 C 97 % 1012,9 hPa 0,0 l/m 0 min 0 min 0,0 UV-I 0 W/m 0,0 km/h (0 Bft)
27.08.2014 06:14 8,9 C 7,2 C 97 % 1012,9 hPa 0,0 l/m 0 min 0 min 0,0 UV-I 0 W/m 0,0 km/h (0 Bft)
27.08.2014 06:16 8,9 C 7,2 C 98 % 1013,0 hPa 0,0 l/m 0 min 0 min 0,0 UV-I 0 W/m 0,0 km/h (0 Bft)
27.08.2014 06:18 8,9 C 7,2 C 98 % 1013,0 hPa 0,0 l/m 0 min 0 min 0,0 UV-I 0 W/m 0,0 km/h (0 Bft)
27.08.2014 06:20 8,9 C 7,2 C 98 % 1013,0 hPa 0,0 l/m 0 min 0 min 0,0 UV-I 0 W/m 0,0 km/h (0 Bft)
27.08.2014 06:22 8,9 C 7,2 C 98 % 1013,1 hPa 0,0 l/m 0 min 0 min 0,0 UV-I 0 W/m 0,0 km/h (0 Bft)
27.08.2014 06:24 8,8 C 7,2 C 98 % 1013,0 hPa 0,0 l/m 0 min 0 min 0,0 UV-I 0 W/m 0,0 km/h (0 Bft)
27.08.2014 06:26 8,8 C 7,2 C 98 % 1013,1 hPa 0,0 l/m 0 min 0 min 0,0 UV-I 0 W/m 0,0 km/h (0 Bft)
27.08.2014 06:28 8,8 C 7,2 C 98 % 1013,1 hPa 0,0 l/m 0 min 0 min 0,0 UV-I 0 W/m 0,0 km/h (0 Bft)
27.08.2014 06:30 8,8 C 7,2 C 98 % 1013,1 hPa 0,0 l/m 0 min 0 min 0,0 UV-I 0 W/m 0,0 km/h (0 Bft)
27.08.2014 06:32 8,7 C 7,2 C 97 % 1013,2 hPa 0,0 l/m 0 min 0 min 0,0 UV-I 0 W/m 0,0 km/h (0 Bft)
27.08.2014 06:34 8,7 C 7,2 C 97 % 1013,2 hPa 0,0 l/m 0 min 0 min 0,0 UV-I 0 W/m 0,0 km/h (0 Bft)
27.08.2014 06:36 8,7 C 7,2 C 97 % 1013,3 hPa 0,0 l/m 0 min 0 min 0,0 UV-I 0 W/m 0,0 km/h (0 Bft)
27.08.2014 06:38 8,7 C 7,2 C 97 % 1013,3 hPa 0,0 l/m 0 min 0 min 0,0 UV-I 0 W/m 0,0 km/h (0 Bft)
27.08.2014 06:40 8,7 C 7,2 C 97 % 1013,4 hPa 0,0 l/m 0 min 0 min 0,0 UV-I 0 W/m 0,0 km/h (0 Bft)
27.08.2014 06:42 8,7 C 7,2 C 97 % 1013,5 hPa 0,0 l/m 0 min 0 min 0,0 UV-I 0 W/m 0,0 km/h (0 Bft)
27.08.2014 06:44 8,7 C 7,2 C 97 % 1013,4 hPa 0,0 l/m 0 min 0 min 0,0 UV-I 0 W/m 0,0 km/h (0 Bft)
27.08.2014 06:46 8,6 C 7,2 C 97 % 1013,5 hPa 0,0 l/m 0 min 0 min 0,0 UV-I 8 W/m 0,0 km/h (0 Bft)
27.08.2014 06:48 8,6 C 7,2 C 97 % 1013,5 hPa 0,0 l/m 0 min 0 min 0,0 UV-I 9 W/m 0,0 km/h (0 Bft)
27.08.2014 06:50 8,6 C 7,2 C 97 % 1013,5 hPa 0,0 l/m 0 min 0 min 0,0 UV-I 11 W/m 0,0 km/h (0 Bft)
27.08.2014 06:52 8,6 C 7,2 C 98 % 1013,6 hPa 0,0 l/m 0 min 0 min 0,0 UV-I 12 W/m 0,0 km/h (0 Bft)
27.08.2014 06:54 8,6 C 7,2 C 98 % 1013,6 hPa 0,0 l/m 0 min 0 min 0,0 UV-I 12 W/m 0,0 km/h (0 Bft)
27.08.2014 06:56 8,6 C 7,2 C 98 % 1013,5 hPa 0,0 l/m 0 min 0 min 0,0 UV-I 14 W/m 0,0 km/h (0 Bft)
27.08.2014 06:58 8,5 C 7,2 C 98 % 1013,6 hPa 0,0 l/m 0 min 0 min 0,0 UV-I 16 W/m 0,0 km/h (0 Bft)
27.08.2014 07:00 8,5 C 7,2 C 98 % 1013,5 hPa 0,0 l/m 0 min 0 min 0,0 UV-I 19 W/m 0,0 km/h (0 Bft)
27.08.2014 07:02 8,5 C 7,2 C 98 % 1013,6 hPa 0,0 l/m 0 min 0 min 0,0 UV-I 19 W/m 0,0 km/h (0 Bft)
27.08.2014 07:04 8,4 C 7,2 C 98 % 1013,6 hPa 0,0 l/m 0 min 0 min 0,0 UV-I 22 W/m 0,0 km/h (0 Bft)
27.08.2014 07:06 8,4 C 7,2 C 98 % 1013,7 hPa 0,0 l/m 2 min 0 min 0,0 UV-I 29 W/m 0,0 km/h (0 Bft)
27.08.2014 07:08 8,4 C 7,2 C 98 % 1013,8 hPa 0,0 l/m 2 min 0 min 0,0 UV-I 33 W/m 0,0 km/h (0 Bft)
27.08.2014 07:10 8,4 C 7,2 C 98 % 1013,7 hPa 0,0 l/m 2 min 0 min 0,0 UV-I 36 W/m 0,0 km/h (0 Bft)
27.08.2014 07:12 8,4 C 7,2 C 98 % 1013,7 hPa 0,0 l/m 2 min 0 min 0,0 UV-I 40 W/m 0,0 km/h (0 Bft)
27.08.2014 07:14 8,4 C 7,2 C 98 % 1013,8 hPa 0,0 l/m 2 min 0 min 0,0 UV-I 43 W/m 0,0 km/h (0 Bft)
27.08.2014 07:16 8,4 C 7,2 C 98 % 1013,7 hPa 0,0 l/m 2 min 0 min 0,0 UV-I 47 W/m 0,0 km/h (0 Bft)
27.08.2014 07:18 8,4 C 7,2 C 97 % 1013,7 hPa 0,0 l/m 2 min 0 min 0,0 UV-I 50 W/m 0,0 km/h (0 Bft)
27.08.2014 07:20 8,4 C 7,2 C 97 % 1013,7 hPa 0,0 l/m 2 min 0 min 0,0 UV-I 52 W/m 0,0 km/h (0 Bft)
27.08.2014 07:22 8,3 C 7,2 C 97 % 1013,7 hPa 0,0 l/m 2 min 0 min 0,0 UV-I 57 W/m 0,0 km/h (0 Bft)
27.08.2014 07:24 8,3 C 7,2 C 97 % 1013,8 hPa 0,0 l/m 2 min 0 min 0,0 UV-I 61 W/m 0,0 km/h (0 Bft)
27.08.2014 07:26 8,3 C 7,8 C 97 % 1013,7 hPa 0,0 l/m 2 min 0 min 0,0 UV-I 65 W/m 0,0 km/h (0 Bft)
27.08.2014 07:28 8,3 C 7,8 C 97 % 1013,8 hPa 0,0 l/m 2 min 0 min 0,0 UV-I 69 W/m 0,0 km/h (0 Bft)
27.08.2014 07:30 8,3 C 7,8 C 97 % 1013,9 hPa 0,0 l/m 2 min 0 min 0,0 UV-I 74 W/m 0,0 km/h (0 Bft)
27.08.2014 07:32 8,3 C 7,8 C 97 % 1013,8 hPa 0,0 l/m 2 min 0 min 0,0 UV-I 78 W/m 0,0 km/h (0 Bft)
27.08.2014 07:34 8,3 C 7,8 C 97 % 1013,9 hPa 0,0 l/m 2 min 0 min 0,0 UV-I 72 W/m 0,0 km/h (0 Bft)
27.08.2014 07:36 8,3 C 7,8 C 97 % 1013,9 hPa 0,0 l/m 2 min 0 min 0,0 UV-I 82 W/m 0,0 km/h (0 Bft)
27.08.2014 07:38 8,3 C 7,8 C 97 % 1013,9 hPa 0,0 l/m 2 min 0 min 0,0 UV-I 90 W/m 0,0 km/h (0 Bft)
27.08.2014 07:40 8,3 C 7,8 C 97 % 1013,8 hPa 0,0 l/m 2 min 0 min 0,0 UV-I 96 W/m 0,0 km/h (0 Bft)
27.08.2014 07:42 8,3 C 7,8 C 98 % 1013,9 hPa 0,0 l/m 2 min 0 min 0,0 UV-I 101 W/m 0,0 km/h (0 Bft)
27.08.2014 07:44 8,4 C 8,3 C 98 % 1013,9 hPa 0,0 l/m 2 min 0 min 0,0 UV-I 106 W/m 0,0 km/h (0 Bft)
27.08.2014 07:46 8,4 C 8,3 C 98 % 1014,0 hPa 0,0 l/m 2 min 0 min 0,0 UV-I 112 W/m 0,0 km/h (0 Bft)
27.08.2014 07:48 8,4 C 8,3 C 98 % 1014,0 hPa 0,0 l/m 2 min 0 min 0,0 UV-I 118 W/m 0,0 km/h (0 Bft)
27.08.2014 07:50 8,5 C 8,3 C 98 % 1013,9 hPa 0,2 l/m 2 min 0 min 0,0 UV-I 124 W/m 0,0 km/h (0 Bft)
27.08.2014 07:52 8,6 C 8,3 C 98 % 1014,0 hPa 0,0 l/m 2 min 0 min 0,0 UV-I 129 W/m 0,0 km/h (0 Bft)
27.08.2014 07:54 8,6 C 8,3 C 98 % 1014,1 hPa 0,0 l/m 2 min 0 min 0,0 UV-I 134 W/m 0,0 km/h (0 Bft)
27.08.2014 07:56 8,6 C 8,3 C 98 % 1014,1 hPa 0,0 l/m 2 min 0 min 0,0 UV-I 139 W/m 0,0 km/h (0 Bft)
27.08.2014 07:58 8,7 C 8,3 C 98 % 1014,2 hPa 0,0 l/m 2 min 0 min 0,0 UV-I 144 W/m 0,0 km/h (0 Bft)
27.08.2014 08:00 8,7 C 8,3 C 98 % 1014,1 hPa 0,0 l/m 2 min 0 min 0,0 UV-I 148 W/m 0,0 km/h (0 Bft)
27.08.2014 08:02 8,7 C 8,9 C 98 % 1014,2 hPa 0,0 l/m 2 min 0 min 0,0 UV-I 152 W/m 0,0 km/h (0 Bft)
27.08.2014 08:04 8,8 C 8,9 C 98 % 1014,3 hPa 0,0 l/m 2 min 0 min 0,0 UV-I 158 W/m 0,0 km/h (0 Bft)
27.08.2014 08:06 8,8 C 8,9 C 98 % 1014,3 hPa 0,0 l/m 2 min 0 min 0,0 UV-I 164 W/m 0,0 km/h (0 Bft)
27.08.2014 08:08 8,9 C 8,9 C 98 % 1014,4 hPa 0,0 l/m 2 min 0 min 0,0 UV-I 168 W/m 0,0 km/h (0 Bft)
27.08.2014 08:10 8,9 C 8,9 C 98 % 1014,3 hPa 0,0 l/m 2 min 0 min 0,0 UV-I 174 W/m 0,0 km/h (0 Bft)
27.08.2014 08:12 8,9 C 8,9 C 98 % 1014,4 hPa 0,0 l/m 2 min 0 min 0,0 UV-I 179 W/m 0,0 km/h (0 Bft)
27.08.2014 08:14 9,0 C 8,9 C 98 % 1014,4 hPa 0,0 l/m 2 min 0 min 0,0 UV-I 185 W/m 0,0 km/h (0 Bft)
27.08.2014 08:16 9,1 C 8,9 C 98 % 1014,5 hPa 0,0 l/m 2 min 0 min 0,0 UV-I 189 W/m 0,0 km/h (0 Bft)
27.08.2014 08:18 9,1 C 8,9 C 98 % 1014,5 hPa 0,0 l/m 2 min 0 min 0,0 UV-I 192 W/m 0,0 km/h (0 Bft)
27.08.2014 08:20 9,2 C 8,9 C 98 % 1014,5 hPa 0,0 l/m 2 min 0 min 0,0 UV-I 199 W/m 0,0 km/h (0 Bft)
27.08.2014 08:22 9,2 C 8,9 C 98 % 1014,5 hPa 0,0 l/m 2 min 0 min 0,0 UV-I 197 W/m 0,0 km/h (0 Bft)
27.08.2014 08:24 9,3 C 9,4 C 98 % 1014,6 hPa 0,0 l/m 2 min 2 min 0,0 UV-I 198 W/m 0,0 km/h (0 Bft)
27.08.2014 08:26 9,4 C 9,4 C 98 % 1014,7 hPa 0,0 l/m 2 min 0 min 0,0 UV-I 203 W/m 0,0 km/h (0 Bft)
27.08.2014 08:28 9,4 C 9,4 C 98 % 1014,7 hPa 0,0 l/m 2 min 0 min 0,0 UV-I 209 W/m 0,0 km/h (0 Bft)
27.08.2014 08:30 9,4 C 9,4 C 98 % 1014,6 hPa 0,0 l/m 2 min 0 min 0,0 UV-I 214 W/m 0,0 km/h (0 Bft)
27.08.2014 08:32 9,5 C 9,4 C 98 % 1014,7 hPa 0,0 l/m 2 min 0 min 0,0 UV-I 219 W/m 0,0 km/h (0 Bft)
27.08.2014 08:34 9,6 C 9,4 C 98 % 1014,7 hPa 0,0 l/m 2 min 0 min 0,0 UV-I 224 W/m 0,0 km/h (0 Bft)
27.08.2014 08:36 9,6 C 9,4 C 98 % 1014,7 hPa 0,0 l/m 2 min 0 min 0,0 UV-I 230 W/m 0,0 km/h (0 Bft)
27.08.2014 08:38 9,7 C 9,4 C 98 % 1014,7 hPa 0,0 l/m 2 min 0 min 0,0 UV-I 235 W/m 0,0 km/h (0 Bft)
27.08.2014 08:40 9,7 C 9,4 C 98 % 1014,7 hPa 0,0 l/m 2 min 0 min 0,0 UV-I 242 W/m 0,0 km/h (0 Bft)
27.08.2014 08:42 9,8 C 9,4 C 98 % 1014,7 hPa 0,0 l/m 2 min 0 min 0,0 UV-I 247 W/m 0,0 km/h (0 Bft)
27.08.2014 08:44 9,9 C 10,0 C 98 % 1014,7 hPa 0,0 l/m 2 min 0 min 0,0 UV-I 254 W/m 0,0 km/h (0 Bft)
27.08.2014 08:46 9,9 C 10,0 C 98 % 1014,8 hPa 0,0 l/m 2 min 0 min 0,0 UV-I 258 W/m 0,0 km/h (0 Bft)
27.08.2014 08:48 10,0 C 10,0 C 99 % 1014,8 hPa 0,0 l/m 2 min 0 min 0,0 UV-I 264 W/m 0,0 km/h (0 Bft)
27.08.2014 08:50 10,1 C 10,0 C 99 % 1014,8 hPa 0,0 l/m 2 min 0 min 0,0 UV-I 270 W/m 0,0 km/h (0 Bft)
27.08.2014 08:52 10,2 C 10,0 C 99 % 1014,8 hPa 0,0 l/m 2 min 0 min 0,0 UV-I 275 W/m 0,0 km/h (0 Bft)
27.08.2014 08:54 10,3 C 10,0 C 98 % 1014,8 hPa 0,0 l/m 2 min 0 min 0,0 UV-I 281 W/m 0,0 km/h (0 Bft)
27.08.2014 08:56 10,4 C 10,0 C 98 % 1014,8 hPa 0,0 l/m 2 min 0 min 0,0 UV-I 288 W/m 0,0 km/h (0 Bft)
27.08.2014 08:58 10,5 C 10,6 C 99 % 1014,8 hPa 0,0 l/m 2 min 0 min 0,0 UV-I 294 W/m 0,0 km/h (0 Bft)
27.08.2014 09:00 10,6 C 10,6 C 99 % 1014,8 hPa 0,0 l/m 2 min 0 min 0,0 UV-I 299 W/m 0,0 km/h (0 Bft)
27.08.2014 09:02 10,7 C 10,6 C 99 % 1014,9 hPa 0,0 l/m 2 min 0 min 0,0 UV-I 309 W/m 0,0 km/h (0 Bft)
27.08.2014 09:04 10,8 C 10,6 C 99 % 1014,9 hPa 0,0 l/m 2 min 0 min 0,0 UV-I 314 W/m 0,0 km/h (0 Bft)
27.08.2014 09:06 10,8 C 10,6 C 99 % 1014,9 hPa 0,0 l/m 2 min 0 min 0,0 UV-I 322 W/m 0,0 km/h (0 Bft)
27.08.2014 09:08 10,9 C 10,6 C 99 % 1014,9 hPa 0,0 l/m 2 min 0 min 0,0 UV-I 331 W/m 0,0 km/h (0 Bft)
27.08.2014 09:10 11,4 C 10,6 C 99 % 1014,9 hPa 0,0 l/m 2 min 0 min 0,0 UV-I 338 W/m 0,0 km/h (0 Bft)
27.08.2014 09:12 11,7 C 11,1 C 99 % 1015,0 hPa 0,0 l/m 2 min 0 min 0,0 UV-I 347 W/m 0,0 km/h (0 Bft)
27.08.2014 09:14 11,9 C 11,1 C 99 % 1015,0 hPa 0,0 l/m 2 min 0 min 0,0 UV-I 354 W/m 0,0 km/h (0 Bft)
27.08.2014 09:16 12,1 C 11,1 C 99 % 1015,0 hPa 0,0 l/m 2 min 0 min 0,0 UV-I 359 W/m 0,0 km/h (0 Bft)
27.08.2014 09:18 12,3 C 11,1 C 99 % 1015,0 hPa 0,0 l/m 2 min 0 min 0,0 UV-I 366 W/m 0,0 km/h (0 Bft)
27.08.2014 09:20 12,3 C 11,1 C 99 % 1015,0 hPa 0,0 l/m 2 min 0 min 0,0 UV-I 354 W/m 0,0 km/h (0 Bft)
27.08.2014 09:22 12,4 C 11,1 C 99 % 1015,0 hPa 0,0 l/m 2 min 0 min 0,0 UV-I 323 W/m 0,0 km/h (0 Bft)
27.08.2014 09:24 12,6 C 11,1 C 99 % 1015,0 hPa 0,0 l/m 2 min 0 min 0,4 UV-I 371 W/m 0,0 km/h (0 Bft)
27.08.2014 09:26 12,7 C 11,1 C 99 % 1015,0 hPa 0,0 l/m 2 min 0 min 0,1 UV-I 336 W/m 0,0 km/h (0 Bft)
27.08.2014 09:28 12,8 C 11,7 C 99 % 1015,0 hPa 0,0 l/m 2 min 0 min 0,5 UV-I 366 W/m 0,0 km/h (0 Bft)
27.08.2014 09:30 13,0 C 11,7 C 99 % 1015,1 hPa 0,0 l/m 2 min 0 min 0,5 UV-I 366 W/m 0,0 km/h (0 Bft)
27.08.2014 09:32 13,2 C 11,7 C 99 % 1015,1 hPa 0,0 l/m 2 min 0 min 0,5 UV-I 333 W/m 0,0 km/h (0 Bft)
27.08.2014 09:34 13,3 C 11,7 C 99 % 1015,1 hPa 0,0 l/m 2 min 0 min 0,5 UV-I 343 W/m 0,0 km/h (0 Bft)
27.08.2014 09:36 13,5 C 12,2 C 99 % 1015,2 hPa 0,0 l/m 2 min 0 min 0,6 UV-I 368 W/m 0,0 km/h (0 Bft)
27.08.2014 09:38 13,6 C 12,2 C 99 % 1015,2 hPa 0,0 l/m 2 min 0 min 0,6 UV-I 389 W/m 0,0 km/h (0 Bft)
27.08.2014 09:40 13,6 C 12,8 C 99 % 1015,2 hPa 0,0 l/m 2 min 0 min 0,5 UV-I 297 W/m 0,0 km/h (0 Bft)
27.08.2014 09:42 13,7 C 12,8 C 99 % 1015,2 hPa 0,0 l/m 0 min 0 min 0,3 UV-I 209 W/m 0,0 km/h (0 Bft)
27.08.2014 09:43 13,7 C 12,8 C 99 % 1015,2 hPa 0,0 l/m 0 min 0 min 0,5 UV-I 197 W/m 0,0 km/h (0 Bft)
27.08.2014 09:46 13,7 C 13,9 C 99 % 1015,2 hPa 0,0 l/m 2 min 0 min 0,5 UV-I 254 W/m 0,0 km/h (0 Bft)
27.08.2014 09:48 13,8 C 13,9 C 99 % 1015,2 hPa 0,0 l/m 2 min 0 min 0,8 UV-I 340 W/m 0,0 km/h (0 Bft)
27.08.2014 09:50 14,1 C 13,9 C 99 % 1015,2 hPa 0,0 l/m 2 min 0 min 0,9 UV-I 426 W/m 0,0 km/h (0 Bft)
27.08.2014 09:52 14,2 C 13,9 C 99 % 1015,3 hPa 0,0 l/m 2 min 0 min 1,0 UV-I 461 W/m 0,0 km/h (0 Bft)
27.08.2014 09:54 14,4 C 13,3 C 99 % 1015,3 hPa 0,0 l/m 2 min 0 min 1,0 UV-I 464 W/m 0,0 km/h (0 Bft)
27.08.2014 09:56 14,6 C 13,3 C 99 % 1015,3 hPa 0,0 l/m 2 min 0 min 1,0 UV-I 466 W/m 0,0 km/h (0 Bft)
27.08.2014 09:58 14,7 C 13,3 C 99 % 1015,3 hPa 0,0 l/m 2 min 0 min 1,1 UV-I 468 W/m 0,0 km/h (0 Bft)
27.08.2014 10:00 14,8 C 13,3 C 98 % 1015,3 hPa 0,0 l/m 2 min 0 min 1,1 UV-I 455 W/m 0,0 km/h (0 Bft)
27.08.2014 10:02 14,9 C 13,3 C 98 % 1015,4 hPa 0,0 l/m 2 min 0 min 1,1 UV-I 470 W/m 0,0 km/h (0 Bft)
27.08.2014 10:04 15,1 C 13,3 C 98 % 1015,4 hPa 0,0 l/m 2 min 0 min 1,2 UV-I 484 W/m 0,0 km/h (0 Bft)
27.08.2014 10:06 15,3 C 13,3 C 98 % 1015,4 hPa 0,0 l/m 2 min 0 min 1,2 UV-I 485 W/m 0,0 km/h (0 Bft)
27.08.2014 10:08 15,3 C 13,3 C 97 % 1015,4 hPa 0,0 l/m 2 min 0 min 1,3 UV-I 488 W/m 0,0 km/h (0 Bft)
27.08.2014 10:10 15,6 C 13,3 C 97 % 1015,5 hPa 0,0 l/m 2 min 0 min 1,3 UV-I 501 W/m 0,0 km/h (0 Bft)
27.08.2014 10:12 15,7 C 13,3 C 96 % 1015,5 hPa 0,0 l/m 2 min 0 min 1,3 UV-I 504 W/m 14,2 km/h (3 Bft)
27.08.2014 10:14 15,7 C 13,9 C 95 % 1015,5 hPa 0,0 l/m 2 min 0 min 1,3 UV-I 509 W/m 14,2 km/h (3 Bft)
27.08.2014 10:16 15,8 C 13,9 C 94 % 1015,5 hPa 0,0 l/m 2 min 0 min 1,4 UV-I 515 W/m 14,2 km/h (3 Bft)
27.08.2014 10:18 15,9 C 13,9 C 93 % 1015,5 hPa 0,0 l/m 2 min 0 min 1,4 UV-I 519 W/m 3,5 km/h (1 Bft)
27.08.2014 10:20 16,1 C 13,9 C 92 % 1015,6 hPa 0,0 l/m 2 min 0 min 1,5 UV-I 521 W/m 0,0 km/h (0 Bft)
27.08.2014 10:22 16,1 C 13,9 C 92 % 1015,6 hPa 0,0 l/m 2 min 0 min 1,5 UV-I 522 W/m 0,0 km/h (0 Bft)
27.08.2014 10:24 16,3 C 13,9 C 91 % 1015,6 hPa 0,0 l/m 2 min 0 min 1,5 UV-I 527 W/m 0,0 km/h (0 Bft)
27.08.2014 10:26 16,4 C 14,4 C 91 % 1015,6 hPa 0,0 l/m 2 min 0 min 1,5 UV-I 532 W/m 14,2 km/h (3 Bft)
27.08.2014 10:28 16,4 C 14,4 C 91 % 1015,7 hPa 0,0 l/m 2 min 0 min 1,6 UV-I 539 W/m 14,2 km/h (3 Bft)
27.08.2014 10:30 16,4 C 14,4 C 90 % 1015,6 hPa 0,0 l/m 2 min 0 min 1,6 UV-I 541 W/m 10,7 km/h (2 Bft)
27.08.2014 10:32 16,6 C 14,4 C 89 % 1015,6 hPa 0,0 l/m 2 min 0 min 1,7 UV-I 547 W/m 0,0 km/h (0 Bft)
27.08.2014 10:34 16,8 C 14,4 C 89 % 1015,7 hPa 0,0 l/m 2 min 0 min 1,7 UV-I 554 W/m 0,0 km/h (0 Bft)
27.08.2014 10:36 16,9 C 15,0 C 88 % 1015,6 hPa 0,0 l/m 2 min 0 min 1,7 UV-I 512 W/m 0,0 km/h (0 Bft)
27.08.2014 10:38 17,1 C 15,0 C 88 % 1015,6 hPa 0,0 l/m 2 min 0 min 1,7 UV-I 552 W/m 0,0 km/h (0 Bft)
27.08.2014 10:40 17,1 C 15,0 C 86 % 1015,6 hPa 0,0 l/m 2 min 0 min 1,8 UV-I 564 W/m 0,0 km/h (0 Bft)
27.08.2014 10:42 17,2 C 15,0 C 87 % 1015,6 hPa 0,0 l/m 2 min 0 min 1,8 UV-I 570 W/m 17,7 km/h (3 Bft)
27.08.2014 10:44 17,2 C 15,0 C 85 % 1015,6 hPa 0,0 l/m 2 min 0 min 1,9 UV-I 573 W/m 14,2 km/h (3 Bft)
27.08.2014 10:46 17,3 C 15,0 C 85 % 1015,7 hPa 0,0 l/m 2 min 0 min 1,9 UV-I 578 W/m 10,7 km/h (2 Bft)
27.08.2014 10:48 17,5 C 15,6 C 85 % 1015,6 hPa 0,0 l/m 2 min 0 min 1,9 UV-I 579 W/m 17,7 km/h (3 Bft)
27.08.2014 10:50 17,4 C 15,6 C 83 % 1015,7 hPa 0,0 l/m 2 min 0 min 2,0 UV-I 582 W/m 17,7 km/h (3 Bft)
27.08.2014 10:52 17,5 C 15,6 C 83 % 1015,7 hPa 0,0 l/m 2 min 0 min 2,0 UV-I 590 W/m 17,7 km/h (3 Bft)
27.08.2014 10:54 17,6 C 15,6 C 84 % 1015,7 hPa 0,0 l/m 2 min 0 min 2,0 UV-I 589 W/m 17,7 km/h (3 Bft)
27.08.2014 10:56 17,7 C 15,6 C 83 % 1015,8 hPa 0,0 l/m 2 min 0 min 2,0 UV-I 584 W/m 17,7 km/h (3 Bft)
27.08.2014 10:58 17,7 C 15,6 C 80 % 1015,8 hPa 0,0 l/m 2 min 0 min 2,1 UV-I 590 W/m 0,0 km/h (0 Bft)
27.08.2014 11:00 17,9 C 15,6 C 81 % 1015,8 hPa 0,0 l/m 2 min 0 min 2,1 UV-I 600 W/m 0,0 km/h (0 Bft)
27.08.2014 11:02 18,1 C 15,6 C 83 % 1015,7 hPa 0,0 l/m 2 min 0 min 2,1 UV-I 593 W/m 10,7 km/h (2 Bft)
27.08.2014 11:04 18,2 C 15,6 C 81 % 1015,7 hPa 0,0 l/m 2 min 0 min 2,1 UV-I 572 W/m 24,7 km/h (4 Bft)
27.08.2014 11:06 18,1 C 16,1 C 80 % 1015,8 hPa 0,0 l/m 2 min 0 min 2,1 UV-I 549 W/m 21,3 km/h (4 Bft)
27.08.2014 11:08 18,0 C 16,1 C 79 % 1015,8 hPa 0,0 l/m 2 min 0 min 2,3 UV-I 635 W/m 17,7 km/h (3 Bft)
27.08.2014 11:10 18,1 C 16,1 C 80 % 1015,8 hPa 0,0 l/m 2 min 0 min 2,3 UV-I 635 W/m 17,7 km/h (3 Bft)
27.08.2014 11:12 18,1 C 16,1 C 79 % 1015,8 hPa 0,0 l/m 2 min 0 min 2,3 UV-I 632 W/m 17,7 km/h (3 Bft)
27.08.2014 11:14 18,1 C 16,1 C 78 % 1015,8 hPa 0,0 l/m 2 min 0 min 2,4 UV-I 634 W/m 17,7 km/h (3 Bft)
27.08.2014 11:16 18,3 C 16,1 C 79 % 1015,9 hPa 0,0 l/m 2 min 0 min 2,3 UV-I 620 W/m 7,1 km/h (2 Bft)
27.08.2014 11:18 18,4 C 16,1 C 78 % 1015,9 hPa 0,0 l/m 2 min 0 min 2,3 UV-I 607 W/m 14,2 km/h (3 Bft)
27.08.2014 11:20 18,4 C 16,7 C 78 % 1015,9 hPa 0,0 l/m 2 min 0 min 2,4 UV-I 611 W/m 24,7 km/h (4 Bft)
27.08.2014 11:22 18,4 C 16,7 C 78 % 1015,8 hPa 0,0 l/m 2 min 0 min 2,5 UV-I 630 W/m 24,7 km/h (4 Bft)
27.08.2014 11:24 18,5 C 16,7 C 77 % 1015,8 hPa 0,0 l/m 2 min 0 min 2,5 UV-I 621 W/m 17,7 km/h (3 Bft)
27.08.2014 11:26 18,6 C 16,7 C 77 % 1015,8 hPa 0,0 l/m 2 min 0 min 2,6 UV-I 629 W/m 17,7 km/h (3 Bft)
27.08.2014 11:28 18,7 C 16,7 C 78 % 1015,9 hPa 0,0 l/m 2 min 0 min 2,6 UV-I 640 W/m 38,9 km/h (6 Bft)
27.08.2014 11:30 18,7 C 16,7 C 76 % 1016,0 hPa 0,0 l/m 2 min 0 min 2,7 UV-I 646 W/m 31,7 km/h (5 Bft)
27.08.2014 11:32 18,6 C 16,7 C 73 % 1015,9 hPa 0,0 l/m 2 min 0 min 2,7 UV-I 643 W/m 21,3 km/h (4 Bft)
27.08.2014 11:34 18,8 C 16,7 C 74 % 1015,9 hPa 0,0 l/m 2 min 0 min 2,7 UV-I 643 W/m 7,1 km/h (2 Bft)
27.08.2014 11:36 18,9 C 16,7 C 75 % 1016,0 hPa 0,0 l/m 2 min 0 min 2,7 UV-I 646 W/m 24,7 km/h (4 Bft)
27.08.2014 11:38 19,0 C 16,7 C 72 % 1016,0 hPa 0,0 l/m 2 min 0 min 2,8 UV-I 661 W/m 31,7 km/h (5 Bft)
27.08.2014 11:40 18,9 C 16,7 C 71 % 1015,9 hPa 0,0 l/m 2 min 0 min 2,8 UV-I 644 W/m 21,3 km/h (4 Bft)
27.08.2014 11:42 19,1 C 17,2 C 72 % 1016,0 hPa 0,0 l/m 2 min 0 min 2,9 UV-I 666 W/m 28,2 km/h (4 Bft)
27.08.2014 11:44 19,1 C 17,2 C 70 % 1015,9 hPa 0,0 l/m 2 min 0 min 2,9 UV-I 657 W/m 14,2 km/h (3 Bft)
27.08.2014 11:46 19,2 C 17,2 C 70 % 1016,1 hPa 0,0 l/m 2 min 0 min 2,9 UV-I 660 W/m 24,7 km/h (4 Bft)
27.08.2014 11:48 19,1 C 17,2 C 69 % 1016,0 hPa 0,0 l/m 2 min 0 min 3,0 UV-I 673 W/m 24,7 km/h (4 Bft)
27.08.2014 11:50 19,1 C 17,2 C 65 % 1016,0 hPa 0,0 l/m 2 min 0 min 3,0 UV-I 671 W/m 21,3 km/h (4 Bft)
27.08.2014 11:52 19,2 C 17,2 C 69 % 1016,1 hPa 0,0 l/m 2 min 0 min 3,0 UV-I 666 W/m 17,7 km/h (3 Bft)
27.08.2014 11:54 19,2 C 17,2 C 65 % 1016,1 hPa 0,0 l/m 2 min 0 min 3,0 UV-I 666 W/m 28,2 km/h (4 Bft)
27.08.2014 11:56 19,2 C 17,2 C 71 % 1016,1 hPa 0,0 l/m 2 min 0 min 3,0 UV-I 668 W/m 24,7 km/h (4 Bft)
27.08.2014 11:58 19,2 C 17,2 C 67 % 1016,1 hPa 0,0 l/m 2 min 0 min 2,9 UV-I 610 W/m 35,4 km/h (5 Bft)
27.08.2014 12:00 19,2 C 17,2 C 66 % 1016,1 hPa 0,0 l/m 2 min 0 min 3,0 UV-I 649 W/m 35,4 km/h (5 Bft)
27.08.2014 12:02 19,3 C 17,2 C 67 % 1016,1 hPa 0,0 l/m 2 min 0 min 3,2 UV-I 693 W/m 38,9 km/h (6 Bft)
27.08.2014 12:06 19,4 C 17,8 C 67 % 1016,2 hPa 0,0 l/m 2 min 0 min 3,1 UV-I 647 W/m 28,2 km/h (4 Bft)
27.08.2014 12:08 19,3 C 17,8 C 65 % 1016,1 hPa 0,0 l/m 2 min 0 min 3,0 UV-I 542 W/m 31,7 km/h (5 Bft)
27.08.2014 12:10 19,3 C 17,2 C 65 % 1016,1 hPa 0,0 l/m 2 min 0 min 2,8 UV-I 515 W/m 31,7 km/h (5 Bft)
27.08.2014 12:12 19,3 C 17,2 C 65 % 1016,2 hPa 0,0 l/m 0 min 0 min 3,0 UV-I 209 W/m 28,2 km/h (4 Bft)
27.08.2014 12:14 19,4 C 17,8 C 66 % 1016,1 hPa 0,0 l/m 0 min 0 min 3,3 UV-I 144 W/m 31,7 km/h (5 Bft)
27.08.2014 12:16 19,6 C 17,8 C 68 % 1016,1 hPa 0,0 l/m 0 min 0 min 3,4 UV-I 145 W/m 24,7 km/h (4 Bft)
27.08.2014 12:18 19,6 C 17,8 C 63 % 1016,1 hPa 0,0 l/m 0 min 0 min 3,4 UV-I 237 W/m 28,2 km/h (4 Bft)
27.08.2014 12:20 19,7 C 17,8 C 65 % 1016,1 hPa 0,0 l/m 2 min 0 min 3,5 UV-I 407 W/m 28,2 km/h (4 Bft)
27.08.2014 12:22 19,6 C 17,8 C 63 % 1016,2 hPa 0,0 l/m 2 min 0 min 3,4 UV-I 563 W/m 38,9 km/h (6 Bft)
27.08.2014 12:24 19,6 C 17,8 C 63 % 1016,2 hPa 0,0 l/m 2 min 0 min 3,4 UV-I 703 W/m 31,7 km/h (5 Bft)
27.08.2014 12:26 19,6 C 17,8 C 63 % 1016,2 hPa 0,0 l/m 2 min 0 min 3,2 UV-I 636 W/m 28,2 km/h (4 Bft)
27.08.2014 12:28 19,7 C 18,3 C 63 % 1016,2 hPa 0,0 l/m 2 min 0 min 3,5 UV-I 661 W/m 17,7 km/h (3 Bft)
27.08.2014 12:30 19,9 C 18,3 C 65 % 1016,3 hPa 0,0 l/m 2 min 0 min 3,5 UV-I 724 W/m 31,7 km/h (5 Bft)
27.08.2014 12:32 20,0 C 18,3 C 62 % 1016,2 hPa 0,0 l/m 2 min 0 min 3,5 UV-I 717 W/m 28,2 km/h (4 Bft)
27.08.2014 12:34 20,1 C 18,3 C 63 % 1016,3 hPa 0,0 l/m 2 min 0 min 3,4 UV-I 720 W/m 28,2 km/h (4 Bft)
27.08.2014 12:36 20,2 C 18,3 C 65 % 1016,3 hPa 0,0 l/m 2 min 0 min 2,4 UV-I 732 W/m 24,7 km/h (4 Bft)
27.08.2014 12:38 20,2 C 18,9 C 63 % 1016,3 hPa 0,0 l/m 2 min 0 min 2,4 UV-I 743 W/m 24,7 km/h (4 Bft)
27.08.2014 12:40 20,3 C 18,9 C 63 % 1016,2 hPa 0,0 l/m 2 min 0 min 3,6 UV-I 740 W/m 35,4 km/h (5 Bft)
27.08.2014 12:42 20,4 C 18,9 C 64 % 1016,2 hPa 0,0 l/m 2 min 0 min 3,6 UV-I 740 W/m 31,7 km/h (5 Bft)
27.08.2014 12:44 20,3 C 18,9 C 63 % 1016,2 hPa 0,0 l/m 2 min 0 min 3,3 UV-I 689 W/m 24,7 km/h (4 Bft)
27.08.2014 12:46 20,3 C 18,9 C 64 % 1016,2 hPa 0,0 l/m 2 min 0 min 3,4 UV-I 686 W/m 24,7 km/h (4 Bft)
27.08.2014 12:48 20,5 C 18,9 C 63 % 1016,2 hPa 0,0 l/m 2 min 0 min 3,5 UV-I 724 W/m 21,3 km/h (4 Bft)
27.08.2014 12:50 20,5 C 18,9 C 61 % 1016,2 hPa 0,0 l/m 2 min 0 min 3,2 UV-I 726 W/m 28,2 km/h (4 Bft)
27.08.2014 12:52 20,3 C 18,3 C 62 % 1016,3 hPa 0,0 l/m 2 min 0 min 3,5 UV-I 723 W/m 35,4 km/h (5 Bft)
27.08.2014 12:54 20,2 C 18,3 C 61 % 1016,3 hPa 0,0 l/m 2 min 0 min 3,5 UV-I 707 W/m 24,7 km/h (4 Bft)
27.08.2014 12:56 20,1 C 18,3 C 59 % 1016,3 hPa 0,0 l/m 2 min 0 min 3,3 UV-I 712 W/m 24,7 km/h (4 Bft)
27.08.2014 12:58 20,2 C 18,9 C 60 % 1016,3 hPa 0,0 l/m 2 min 0 min 2,7 UV-I 703 W/m 24,7 km/h (4 Bft)
27.08.2014 13:00 20,2 C 18,9 C 60 % 1016,3 hPa 0,0 l/m 2 min 0 min 2,3 UV-I 711 W/m 17,7 km/h (3 Bft)
27.08.2014 13:02 20,1 C 18,3 C 59 % 1016,3 hPa 0,0 l/m 2 min 0 min 2,6 UV-I 715 W/m 0,0 km/h (0 Bft)
27.08.2014 13:04 20,1 C 18,3 C 59 % 1016,3 hPa 0,0 l/m 2 min 0 min 3,1 UV-I 718 W/m 21,3 km/h (4 Bft)
27.08.2014 13:06 20,2 C 18,3 C 59 % 1016,2 hPa 0,0 l/m 2 min 0 min 3,7 UV-I 723 W/m 31,7 km/h (5 Bft)
27.08.2014 13:08 20,4 C 18,9 C 60 % 1016,3 hPa 0,0 l/m 2 min 0 min 3,8 UV-I 724 W/m 28,2 km/h (4 Bft)
27.08.2014 13:10 20,5 C 18,9 C 58 % 1016,2 hPa 0,0 l/m 2 min 0 min 3,8 UV-I 730 W/m 10,7 km/h (2 Bft)
27.08.2014 13:12 20,6 C 18,9 C 60 % 1016,3 hPa 0,0 l/m 2 min 0 min 3,8 UV-I 735 W/m 24,7 km/h (4 Bft)
27.08.2014 13:14 20,6 C 18,9 C 58 % 1016,2 hPa 0,0 l/m 2 min 0 min 3,8 UV-I 742 W/m 14,2 km/h (3 Bft)
27.08.2014 13:16 20,7 C 19,4 C 61 % 1016,1 hPa 0,0 l/m 2 min 0 min 3,8 UV-I 747 W/m 10,7 km/h (2 Bft)
27.08.2014 13:18 20,7 C 19,4 C 58 % 1016,2 hPa 0,0 l/m 2 min 0 min 3,8 UV-I 751 W/m 28,2 km/h (4 Bft)
27.08.2014 13:20 20,7 C 18,9 C 58 % 1016,2 hPa 0,0 l/m 2 min 0 min 3,7 UV-I 745 W/m 0,0 km/h (0 Bft)
27.08.2014 13:22 20,6 C 19,4 C 60 % 1016,1 hPa 0,0 l/m 2 min 0 min 3,7 UV-I 731 W/m 0,0 km/h (0 Bft)
27.08.2014 13:24 20,8 C 19,4 C 62 % 1016,1 hPa 0,0 l/m 2 min 0 min 3,7 UV-I 727 W/m 24,7 km/h (4 Bft)
27.08.2014 13:26 20,9 C 19,4 C 59 % 1016,1 hPa 0,0 l/m 2 min 0 min 3,7 UV-I 710 W/m 28,2 km/h (4 Bft)
27.08.2014 13:27 21,0 C 19,4 C 58 % 1016,1 hPa 0,0 l/m 1 min 0 min 3,8 UV-I 724 W/m 24,7 km/h (4 Bft)
27.08.2014 13:28 21,0 C 19,4 C 63 % 1016,1 hPa 0,0 l/m 1 min 0 min 3,8 UV-I 721 W/m 17,7 km/h (3 Bft)
27.08.2014 13:30 20,9 C 19,4 C 58 % 1016,0 hPa 0,0 l/m 2 min 0 min 3,8 UV-I 720 W/m 21,3 km/h (4 Bft)
27.08.2014 13:32 20,8 C 19,4 C 60 % 1016,1 hPa 0,0 l/m 2 min 0 min 3,8 UV-I 719 W/m 24,7 km/h (4 Bft)
27.08.2014 13:34 20,6 C 19,4 C 61 % 1016,0 hPa 0,0 l/m 2 min 0 min 3,8 UV-I 720 W/m 14,2 km/h (3 Bft)
27.08.2014 13:36 20,9 C 19,4 C 61 % 1016,1 hPa 0,0 l/m 2 min 0 min 3,8 UV-I 731 W/m 28,2 km/h (4 Bft)
27.08.2014 13:38 21,1 C 19,4 C 60 % 1016,1 hPa 0,0 l/m 2 min 0 min 3,9 UV-I 744 W/m 28,2 km/h (4 Bft)
27.08.2014 13:40 21,0 C 19,4 C 59 % 1016,0 hPa 0,0 l/m 2 min 0 min 3,8 UV-I 743 W/m 28,2 km/h (4 Bft)
27.08.2014 13:42 21,2 C 19,4 C 56 % 1015,9 hPa 0,0 l/m 2 min 0 min 3,8 UV-I 734 W/m 28,2 km/h (4 Bft)
27.08.2014 13:44 21,2 C 19,4 C 57 % 1015,9 hPa 0,0 l/m 2 min 0 min 3,8 UV-I 726 W/m 14,2 km/h (3 Bft)
27.08.2014 13:46 21,2 C 19,4 C 56 % 1015,9 hPa 0,0 l/m 2 min 0 min 3,7 UV-I 713 W/m 31,7 km/h (5 Bft)
27.08.2014 13:48 21,3 C 19,4 C 59 % 1015,9 hPa 0,0 l/m 2 min 0 min 3,7 UV-I 709 W/m 17,7 km/h (3 Bft)
27.08.2014 13:50 21,4 C 19,4 C 56 % 1015,9 hPa 0,0 l/m 2 min 0 min 3,8 UV-I 715 W/m 28,2 km/h (4 Bft)
27.08.2014 13:52 21,3 C 19,4 C 57 % 1016,0 hPa 0,0 l/m 2 min 0 min 3,8 UV-I 723 W/m 28,2 km/h (4 Bft)
27.08.2014 13:54 21,1 C 19,4 C 56 % 1015,9 hPa 0,0 l/m 2 min 0 min 3,8 UV-I 725 W/m 31,7 km/h (5 Bft)
27.08.2014 13:56 21,2 C 19,4 C 56 % 1015,9 hPa 0,0 l/m 2 min 0 min 3,8 UV-I 729 W/m 7,1 km/h (2 Bft)
27.08.2014 13:58 21,2 C 19,4 C 57 % 1015,9 hPa 0,0 l/m 2 min 0 min 3,8 UV-I 730 W/m 14,2 km/h (3 Bft)
27.08.2014 14:00 21,2 C 19,4 C 56 % 1015,9 hPa 0,0 l/m 2 min 0 min 3,8 UV-I 726 W/m 35,4 km/h (5 Bft)
27.08.2014 14:02 21,2 C 19,4 C 56 % 1015,9 hPa 0,0 l/m 2 min 0 min 3,7 UV-I 718 W/m 31,7 km/h (5 Bft)
27.08.2014 14:04 21,2 C 19,4 C 55 % 1015,8 hPa 0,0 l/m 2 min 0 min 3,7 UV-I 708 W/m 35,4 km/h (5 Bft)
27.08.2014 14:06 21,3 C 19,4 C 55 % 1015,9 hPa 0,0 l/m 2 min 0 min 3,7 UV-I 700 W/m 35,4 km/h (5 Bft)
27.08.2014 14:08 21,3 C 19,4 C 56 % 1015,9 hPa 0,0 l/m 2 min 0 min 3,6 UV-I 696 W/m 24,7 km/h (4 Bft)
27.08.2014 14:10 21,3 C 19,4 C 56 % 1015,9 hPa 0,0 l/m 2 min 0 min 3,6 UV-I 697 W/m 31,7 km/h (5 Bft)
27.08.2014 14:12 21,2 C 19,4 C 55 % 1015,9 hPa 0,0 l/m 2 min 0 min 3,6 UV-I 692 W/m 28,2 km/h (4 Bft)
27.08.2014 14:14 21,3 C 19,4 C 57 % 1016,0 hPa 0,0 l/m 2 min 0 min 3,6 UV-I 688 W/m 17,7 km/h (3 Bft)
27.08.2014 14:16 21,5 C 19,4 C 56 % 1015,9 hPa 0,0 l/m 2 min 0 min 3,6 UV-I 688 W/m 24,7 km/h (4 Bft)
27.08.2014 14:18 21,6 C 19,4 C 56 % 1015,9 hPa 0,0 l/m 2 min 0 min 3,6 UV-I 687 W/m 17,7 km/h (3 Bft)
27.08.2014 14:20 21,4 C 19,4 C 55 % 1015,8 hPa 0,0 l/m 2 min 0 min 3,5 UV-I 684 W/m 24,7 km/h (4 Bft)
27.08.2014 14:22 21,4 C 19,4 C 54 % 1015,9 hPa 0,0 l/m 2 min 0 min 3,5 UV-I 682 W/m 28,2 km/h (4 Bft)
27.08.2014 14:24 21,4 C 19,4 C 56 % 1016,0 hPa 0,0 l/m 2 min 0 min 3,5 UV-I 681 W/m 31,7 km/h (5 Bft)
27.08.2014 14:26 21,5 C 19,4 C 56 % 1015,9 hPa 0,0 l/m 2 min 0 min 3,5 UV-I 679 W/m 28,2 km/h (4 Bft)
27.08.2014 14:28 21,4 C 19,4 C 53 % 1016,0 hPa 0,0 l/m 2 min 0 min 3,5 UV-I 678 W/m 35,4 km/h (5 Bft)
27.08.2014 14:30 21,4 C 19,4 C 53 % 1016,0 hPa 0,0 l/m 2 min 0 min 3,5 UV-I 679 W/m 31,7 km/h (5 Bft)
27.08.2014 14:32 21,5 C 19,4 C 54 % 1016,0 hPa 0,0 l/m 2 min 0 min 3,4 UV-I 674 W/m 35,4 km/h (5 Bft)
27.08.2014 14:34 21,4 C 19,4 C 52 % 1016,0 hPa 0,0 l/m 2 min 0 min 3,4 UV-I 671 W/m 35,4 km/h (5 Bft)
27.08.2014 14:36 21,5 C 19,4 C 56 % 1016,0 hPa 0,0 l/m 2 min 0 min 3,4 UV-I 671 W/m 28,2 km/h (4 Bft)
27.08.2014 14:38 21,5 C 19,4 C 52 % 1016,0 hPa 0,0 l/m 2 min 0 min 3,4 UV-I 668 W/m 17,7 km/h (3 Bft)
27.08.2014 14:40 21,4 C 19,4 C 54 % 1016,1 hPa 0,0 l/m 2 min 0 min 3,3 UV-I 665 W/m 14,2 km/h (3 Bft)
27.08.2014 14:42 21,7 C 19,4 C 59 % 1016,0 hPa 0,0 l/m 2 min 0 min 3,3 UV-I 662 W/m 17,7 km/h (3 Bft)
27.08.2014 14:44 21,9 C 19,4 C 55 % 1016,0 hPa 0,0 l/m 2 min 0 min 3,3 UV-I 662 W/m 24,7 km/h (4 Bft)
27.08.2014 14:46 22,0 C 19,4 C 57 % 1016,0 hPa 0,0 l/m 2 min 0 min 3,3 UV-I 658 W/m 31,7 km/h (5 Bft)
27.08.2014 14:48 21,9 C 20,0 C 54 % 1016,1 hPa 0,0 l/m 2 min 0 min 3,2 UV-I 654 W/m 28,2 km/h (4 Bft)
27.08.2014 14:50 21,8 C 19,4 C 52 % 1016,0 hPa 0,0 l/m 2 min 0 min 3,2 UV-I 650 W/m 21,3 km/h (4 Bft)
27.08.2014 14:52 21,7 C 20,0 C 55 % 1016,0 hPa 0,0 l/m 2 min 0 min 3,2 UV-I 649 W/m 28,2 km/h (4 Bft)
27.08.2014 14:54 21,7 C 19,4 C 51 % 1016,0 hPa 0,0 l/m 2 min 0 min 3,2 UV-I 647 W/m 17,7 km/h (3 Bft)
27.08.2014 14:56 21,7 C 19,4 C 55 % 1015,9 hPa 0,0 l/m 2 min 0 min 3,1 UV-I 643 W/m 24,7 km/h (4 Bft)
27.08.2014 14:58 21,7 C 20,0 C 54 % 1015,9 hPa 0,0 l/m 2 min 0 min 3,1 UV-I 644 W/m 21,3 km/h (4 Bft)
27.08.2014 15:00 21,7 C 20,0 C 54 % 1015,9 hPa 0,0 l/m 2 min 0 min 3,1 UV-I 640 W/m 24,7 km/h (4 Bft)
27.08.2014 15:02 22,0 C 20,0 C 56 % 1015,9 hPa 0,0 l/m 2 min 0 min 3,1 UV-I 638 W/m 28,2 km/h (4 Bft)
27.08.2014 15:04 22,0 C 20,0 C 53 % 1016,0 hPa 0,0 l/m 2 min 0 min 3,1 UV-I 638 W/m 46,0 km/h (6 Bft)
27.08.2014 15:06 21,9 C 20,0 C 51 % 1016,1 hPa 0,0 l/m 2 min 0 min 3,0 UV-I 628 W/m 38,9 km/h (6 Bft)
27.08.2014 15:08 21,9 C 20,0 C 53 % 1016,0 hPa 0,0 l/m 2 min 0 min 3,0 UV-I 628 W/m 24,7 km/h (4 Bft)
27.08.2014 15:10 21,8 C 20,0 C 52 % 1016,0 hPa 0,0 l/m 2 min 0 min 3,0 UV-I 632 W/m 21,3 km/h (4 Bft)
27.08.2014 15:12 21,7 C 20,0 C 53 % 1016,0 hPa 0,0 l/m 2 min 0 min 2,9 UV-I 626 W/m 31,7 km/h (5 Bft)
27.08.2014 15:14 21,7 C 20,0 C 54 % 1016,1 hPa 0,0 l/m 2 min 0 min 2,9 UV-I 620 W/m 28,2 km/h (4 Bft)
27.08.2014 15:16 21,6 C 20,0 C 55 % 1016,0 hPa 0,0 l/m 2 min 0 min 2,8 UV-I 610 W/m 10,7 km/h (2 Bft)
27.08.2014 15:18 21,5 C 20,0 C 54 % 1016,0 hPa 0,0 l/m 2 min 0 min 2,8 UV-I 615 W/m 7,1 km/h (2 Bft)
27.08.2014 15:20 21,5 C 20,0 C 56 % 1016,0 hPa 0,0 l/m 2 min 0 min 2,8 UV-I 612 W/m 17,7 km/h (3 Bft)
27.08.2014 15:22 21,8 C 20,0 C 56 % 1015,9 hPa 0,0 l/m 2 min 0 min 2,8 UV-I 608 W/m 14,2 km/h (3 Bft)
27.08.2014 15:24 21,9 C 20,0 C 56 % 1015,9 hPa 0,0 l/m 2 min 0 min 2,7 UV-I 608 W/m 24,7 km/h (4 Bft)
27.08.2014 15:26 21,9 C 20,0 C 56 % 1015,9 hPa 0,0 l/m 2 min 0 min 2,7 UV-I 607 W/m 24,7 km/h (4 Bft)
27.08.2014 15:28 21,9 C 20,0 C 53 % 1016,0 hPa 0,0 l/m 2 min 0 min 2,7 UV-I 599 W/m 24,7 km/h (4 Bft)
27.08.2014 15:30 21,9 C 20,0 C 54 % 1016,0 hPa 0,0 l/m 2 min 0 min 2,6 UV-I 593 W/m 28,2 km/h (4 Bft)
27.08.2014 15:32 21,9 C 20,0 C 55 % 1016,0 hPa 0,0 l/m 2 min 0 min 2,6 UV-I 588 W/m 24,7 km/h (4 Bft)
27.08.2014 15:34 21,8 C 20,0 C 56 % 1016,0 hPa 0,0 l/m 2 min 0 min 2,6 UV-I 589 W/m 21,3 km/h (4 Bft)
27.08.2014 15:36 21,6 C 20,0 C 56 % 1016,0 hPa 0,0 l/m 2 min 0 min 2,5 UV-I 586 W/m 24,7 km/h (4 Bft)
27.08.2014 15:38 21,7 C 20,0 C 56 % 1016,0 hPa 0,0 l/m 2 min 0 min 2,5 UV-I 581 W/m 17,7 km/h (3 Bft)
27.08.2014 15:40 21,7 C 20,0 C 57 % 1016,0 hPa 0,0 l/m 2 min 0 min 2,5 UV-I 580 W/m 24,7 km/h (4 Bft)
27.08.2014 15:42 21,8 C 20,0 C 52 % 1016,0 hPa 0,0 l/m 2 min 0 min 2,5 UV-I 582 W/m 21,3 km/h (4 Bft)
27.08.2014 15:44 21,8 C 20,0 C 55 % 1016,0 hPa 0,0 l/m 2 min 0 min 2,4 UV-I 580 W/m 21,3 km/h (4 Bft)
27.08.2014 15:46 22,1 C 20,0 C 52 % 1016,0 hPa 0,0 l/m 2 min 0 min 2,4 UV-I 580 W/m 24,7 km/h (4 Bft)
27.08.2014 15:48 22,1 C 20,0 C 51 % 1016,0 hPa 0,0 l/m 2 min 0 min 2,4 UV-I 577 W/m 17,7 km/h (3 Bft)
27.08.2014 15:50 22,1 C 20,0 C 55 % 1016,0 hPa 0,0 l/m 2 min 0 min 2,4 UV-I 574 W/m 10,7 km/h (2 Bft)
27.08.2014 15:52 22,1 C 20,0 C 52 % 1015,9 hPa 0,0 l/m 2 min 0 min 2,3 UV-I 566 W/m 17,7 km/h (3 Bft)
27.08.2014 15:54 22,1 C 20,0 C 52 % 1015,9 hPa 0,0 l/m 2 min 0 min 2,3 UV-I 560 W/m 56,5 km/h (7 Bft)
27.08.2014 15:56 21,9 C 20,0 C 54 % 1016,1 hPa 0,0 l/m 2 min 0 min 2,2 UV-I 556 W/m 42,4 km/h (6 Bft)
27.08.2014 15:58 21,9 C 20,0 C 52 % 1016,0 hPa 0,0 l/m 2 min 0 min 2,2 UV-I 557 W/m 31,7 km/h (5 Bft)
27.08.2014 16:00 21,9 C 20,0 C 56 % 1015,9 hPa 0,0 l/m 2 min 0 min 2,2 UV-I 552 W/m 17,7 km/h (3 Bft)
27.08.2014 16:02 22,1 C 20,6 C 53 % 1016,0 hPa 0,0 l/m 2 min 0 min 2,1 UV-I 546 W/m 21,3 km/h (4 Bft)
27.08.2014 16:04 22,0 C 20,6 C 54 % 1016,0 hPa 0,0 l/m 2 min 0 min 2,1 UV-I 539 W/m 17,7 km/h (3 Bft)
27.08.2014 16:06 22,0 C 20,6 C 51 % 1016,0 hPa 0,0 l/m 2 min 0 min 2,0 UV-I 529 W/m 28,2 km/h (4 Bft)
27.08.2014 16:08 21,7 C 20,0 C 52 % 1015,9 hPa 0,0 l/m 2 min 0 min 2,0 UV-I 530 W/m 0,0 km/h (0 Bft)
27.08.2014 16:10 21,7 C 20,0 C 53 % 1015,9 hPa 0,0 l/m 2 min 0 min 2,0 UV-I 524 W/m 17,7 km/h (3 Bft)
27.08.2014 16:12 21,8 C 20,0 C 52 % 1015,9 hPa 0,0 l/m 2 min 0 min 1,9 UV-I 509 W/m 21,3 km/h (4 Bft)
27.08.2014 16:14 21,7 C 20,0 C 53 % 1015,9 hPa 0,0 l/m 2 min 0 min 1,8 UV-I 495 W/m 0,0 km/h (0 Bft)
27.08.2014 16:16 21,7 C 20,0 C 56 % 1015,8 hPa 0,0 l/m 2 min 0 min 1,8 UV-I 504 W/m 17,7 km/h (3 Bft)
27.08.2014 16:18 21,8 C 20,0 C 58 % 1015,8 hPa 0,0 l/m 2 min 0 min 1,8 UV-I 508 W/m 14,2 km/h (3 Bft)
27.08.2014 16:20 22,0 C 20,0 C 55 % 1015,8 hPa 0,0 l/m 2 min 0 min 1,8 UV-I 504 W/m 24,7 km/h (4 Bft)
27.08.2014 16:22 22,0 C 20,0 C 51 % 1015,8 hPa 0,0 l/m 2 min 0 min 1,7 UV-I 499 W/m 28,2 km/h (4 Bft)
27.08.2014 16:24 22,1 C 20,0 C 52 % 1015,8 hPa 0,0 l/m 2 min 0 min 1,7 UV-I 495 W/m 21,3 km/h (4 Bft)
27.08.2014 16:26 22,0 C 20,0 C 52 % 1015,8 hPa 0,0 l/m 2 min 0 min 1,7 UV-I 494 W/m 17,7 km/h (3 Bft)
27.08.2014 16:28 21,8 C 21,1 C 53 % 1015,8 hPa 0,0 l/m 2 min 0 min 1,7 UV-I 488 W/m 3,5 km/h (1 Bft)
27.08.2014 16:30 21,8 C 21,1 C 52 % 1015,8 hPa 0,0 l/m 2 min 0 min 1,6 UV-I 480 W/m 24,7 km/h (4 Bft)
27.08.2014 16:32 21,8 C 20,6 C 54 % 1015,8 hPa 0,0 l/m 2 min 0 min 1,6 UV-I 473 W/m 28,2 km/h (4 Bft)
27.08.2014 16:34 21,9 C 20,6 C 54 % 1015,9 hPa 0,0 l/m 2 min 0 min 1,5 UV-I 468 W/m 31,7 km/h (5 Bft)
27.08.2014 16:36 21,8 C 20,0 C 52 % 1015,9 hPa 0,0 l/m 2 min 0 min 1,5 UV-I 461 W/m 31,7 km/h (5 Bft)
27.08.2014 16:38 21,7 C 20,0 C 52 % 1015,9 hPa 0,0 l/m 2 min 0 min 1,5 UV-I 455 W/m 14,2 km/h (3 Bft)
27.08.2014 16:40 21,8 C 20,0 C 54 % 1015,9 hPa 0,0 l/m 2 min 0 min 1,4 UV-I 447 W/m 0,0 km/h (0 Bft)
27.08.2014 16:42 21,9 C 20,0 C 54 % 1015,8 hPa 0,0 l/m 2 min 0 min 1,4 UV-I 449 W/m 0,0 km/h (0 Bft)
27.08.2014 16:44 22,1 C 20,0 C 55 % 1015,7 hPa 0,0 l/m 2 min 0 min 1,4 UV-I 448 W/m 24,7 km/h (4 Bft)
27.08.2014 16:46 22,1 C 20,0 C 54 % 1015,8 hPa 0,0 l/m 2 min 0 min 1,4 UV-I 453 W/m 21,3 km/h (4 Bft)
27.08.2014 16:48 22,0 C 19,4 C 50 % 1015,8 hPa 0,0 l/m 2 min 0 min 1,4 UV-I 451 W/m 28,2 km/h (4 Bft)
27.08.2014 16:50 22,1 C 19,4 C 52 % 1015,8 hPa 0,0 l/m 2 min 0 min 1,3 UV-I 441 W/m 28,2 km/h (4 Bft)
27.08.2014 16:52 22,2 C 19,4 C 52 % 1015,7 hPa 0,0 l/m 2 min 0 min 1,3 UV-I 436 W/m 10,7 km/h (2 Bft)
27.08.2014 16:54 22,0 C 19,4 C 50 % 1015,6 hPa 0,0 l/m 2 min 0 min 1,2 UV-I 426 W/m 17,7 km/h (3 Bft)
27.08.2014 16:56 22,0 C 19,4 C 50 % 1015,7 hPa 0,0 l/m 2 min 0 min 1,2 UV-I 423 W/m 21,3 km/h (4 Bft)
27.08.2014 16:58 22,0 C 19,4 C 52 % 1015,7 hPa 0,0 l/m 2 min 0 min 1,2 UV-I 419 W/m 3,5 km/h (1 Bft)
27.08.2014 17:00 21,9 C 19,4 C 55 % 1015,7 hPa 0,0 l/m 2 min 0 min 1,2 UV-I 418 W/m 14,2 km/h (3 Bft)
27.08.2014 17:02 21,9 C 19,4 C 55 % 1015,7 hPa 0,0 l/m 2 min 0 min 1,1 UV-I 414 W/m 10,7 km/h (2 Bft)
27.08.2014 17:04 22,0 C 19,4 C 53 % 1015,7 hPa 0,0 l/m 2 min 0 min 1,1 UV-I 410 W/m 21,3 km/h (4 Bft)
27.08.2014 17:06 22,0 C 19,4 C 52 % 1015,7 hPa 0,0 l/m 2 min 0 min 1,1 UV-I 406 W/m 7,1 km/h (2 Bft)
27.08.2014 17:08 21,8 C 19,4 C 51 % 1015,7 hPa 0,0 l/m 2 min 0 min 1,0 UV-I 400 W/m 17,7 km/h (3 Bft)
27.08.2014 17:10 21,8 C 19,4 C 52 % 1015,7 hPa 0,0 l/m 2 min 0 min 1,0 UV-I 391 W/m 24,7 km/h (4 Bft)
27.08.2014 17:12 21,8 C 19,4 C 52 % 1015,8 hPa 0,0 l/m 2 min 0 min 1,0 UV-I 388 W/m 14,2 km/h (3 Bft)
27.08.2014 17:14 21,8 C 19,4 C 52 % 1015,8 hPa 0,0 l/m 2 min 0 min 0,9 UV-I 380 W/m 10,7 km/h (2 Bft)
27.08.2014 17:16 21,8 C 19,4 C 55 % 1015,7 hPa 0,0 l/m 2 min 0 min 0,9 UV-I 378 W/m 3,5 km/h (1 Bft)
27.08.2014 17:18 21,9 C 19,4 C 55 % 1015,9 hPa 0,0 l/m 2 min 0 min 0,9 UV-I 374 W/m 14,2 km/h (3 Bft)
27.08.2014 17:20 22,0 C 19,4 C 55 % 1015,8 hPa 0,0 l/m 2 min 0 min 0,8 UV-I 371 W/m 7,1 km/h (2 Bft)
27.08.2014 17:22 22,0 C 19,4 C 53 % 1015,8 hPa 0,0 l/m 2 min 0 min 0,8 UV-I 365 W/m 14,2 km/h (3 Bft)
27.08.2014 17:24 21,9 C 18,9 C 55 % 1015,8 hPa 0,0 l/m 2 min 0 min 0,8 UV-I 365 W/m 17,7 km/h (3 Bft)
27.08.2014 17:26 21,9 C 19,4 C 54 % 1015,7 hPa 0,0 l/m 2 min 0 min 0,8 UV-I 355 W/m 17,7 km/h (3 Bft)
27.08.2014 17:28 21,9 C 18,9 C 56 % 1015,7 hPa 0,0 l/m 2 min 0 min 0,7 UV-I 349 W/m 0,0 km/h (0 Bft)
27.08.2014 17:30 21,8 C 18,9 C 56 % 1015,7 hPa 0,0 l/m 2 min 0 min 0,7 UV-I 346 W/m 21,3 km/h (4 Bft)
27.08.2014 17:32 21,8 C 18,9 C 52 % 1015,7 hPa 0,0 l/m 2 min 0 min 0,7 UV-I 341 W/m 14,2 km/h (3 Bft)
27.08.2014 17:34 21,8 C 18,9 C 53 % 1015,7 hPa 0,0 l/m 2 min 0 min 0,7 UV-I 337 W/m 24,7 km/h (4 Bft)
27.08.2014 17:36 21,8 C 18,9 C 53 % 1015,6 hPa 0,0 l/m 2 min 0 min 0,6 UV-I 332 W/m 24,7 km/h (4 Bft)
27.08.2014 17:38 21,7 C 18,9 C 52 % 1015,7 hPa 0,0 l/m 2 min 0 min 0,6 UV-I 324 W/m 21,3 km/h (4 Bft)
27.08.2014 17:40 21,6 C 18,9 C 53 % 1015,6 hPa 0,0 l/m 2 min 0 min 0,6 UV-I 323 W/m 21,3 km/h (4 Bft)
27.08.2014 17:42 21,6 C 18,9 C 55 % 1015,7 hPa 0,0 l/m 2 min 0 min 0,5 UV-I 317 W/m 17,7 km/h (3 Bft)
27.08.2014 17:44 21,6 C 18,9 C 53 % 1015,7 hPa 0,0 l/m 2 min 0 min 0,0 UV-I 317 W/m 17,7 km/h (3 Bft)
27.08.2014 17:46 21,4 C 18,9 C 52 % 1015,7 hPa 0,0 l/m 2 min 0 min 0,0 UV-I 316 W/m 0,0 km/h (0 Bft)
27.08.2014 17:48 21,4 C 18,9 C 54 % 1015,7 hPa 0,0 l/m 2 min 0 min 0,0 UV-I 309 W/m 0,0 km/h (0 Bft)
27.08.2014 17:50 21,5 C 18,9 C 55 % 1015,7 hPa 0,0 l/m 2 min 0 min 0,0 UV-I 305 W/m 10,7 km/h (2 Bft)
27.08.2014 17:52 21,6 C 18,9 C 55 % 1015,7 hPa 0,0 l/m 2 min 0 min 0,0 UV-I 298 W/m 24,7 km/h (4 Bft)
27.08.2014 17:54 21,4 C 18,3 C 56 % 1015,8 hPa 0,0 l/m 2 min 0 min 0,0 UV-I 290 W/m 17,7 km/h (3 Bft)
27.08.2014 17:56 21,3 C 18,3 C 56 % 1015,8 hPa 0,0 l/m 2 min 0 min 0,0 UV-I 286 W/m 0,0 km/h (0 Bft)
27.08.2014 17:58 21,3 C 18,3 C 58 % 1015,8 hPa 0,0 l/m 2 min 0 min 0,0 UV-I 287 W/m 17,7 km/h (3 Bft)
27.08.2014 18:00 21,3 C 18,3 C 56 % 1015,7 hPa 0,0 l/m 2 min 0 min 0,0 UV-I 282 W/m 17,7 km/h (3 Bft)
27.08.2014 18:02 21,2 C 18,3 C 56 % 1015,7 hPa 0,0 l/m 2 min 0 min 0,0 UV-I 256 W/m 21,3 km/h (4 Bft)
27.08.2014 18:06 21,0 C 18,3 C 56 % 1015,6 hPa 0,0 l/m 2 min 0 min 0,0 UV-I 257 W/m 10,7 km/h (2 Bft)
27.08.2014 18:08 21,0 C 18,3 C 57 % 1015,6 hPa 0,0 l/m 2 min 0 min 0,0 UV-I 253 W/m 0,0 km/h (0 Bft)
27.08.2014 18:10 21,0 C 18,3 C 58 % 1015,7 hPa 0,0 l/m 2 min 0 min 0,0 UV-I 224 W/m 0,0 km/h (0 Bft)
27.08.2014 18:12 20,9 C 18,3 C 58 % 1015,6 hPa 0,0 l/m 2 min 0 min 0,0 UV-I 214 W/m 17,7 km/h (3 Bft)
27.08.2014 18:13 21,0 C 18,3 C 58 % 1015,7 hPa 0,0 l/m 1 min 0 min 0,0 UV-I 225 W/m 10,7 km/h (2 Bft)
27.08.2014 18:16 21,1 C 17,8 C 60 % 1015,8 hPa 0,0 l/m 2 min 0 min 0,0 UV-I 219 W/m 14,2 km/h (3 Bft)
27.08.2014 18:18 21,0 C 17,8 C 61 % 1015,7 hPa 0,0 l/m 2 min 0 min 0,0 UV-I 228 W/m 7,1 km/h (2 Bft)
27.08.2014 18:20 21,0 C 17,8 C 60 % 1015,7 hPa 0,0 l/m 2 min 0 min 0,0 UV-I 215 W/m 17,7 km/h (3 Bft)
27.08.2014 18:22 20,9 C 17,8 C 61 % 1015,8 hPa 0,0 l/m 2 min 0 min 0,0 UV-I 214 W/m 10,7 km/h (2 Bft)
27.08.2014 18:24 20,9 C 17,8 C 61 % 1015,8 hPa 0,0 l/m 2 min 0 min 0,0 UV-I 192 W/m 10,7 km/h (2 Bft)
27.08.2014 18:26 20,9 C 17,8 C 59 % 1015,8 hPa 0,0 l/m 2 min 0 min 0,0 UV-I 202 W/m 17,7 km/h (3 Bft)
27.08.2014 18:28 20,8 C 18,3 C 59 % 1015,8 hPa 0,0 l/m 2 min 0 min 0,0 UV-I 181 W/m 7,1 km/h (2 Bft)
27.08.2014 18:30 20,9 C 17,8 C 61 % 1015,9 hPa 0,0 l/m 2 min 0 min 0,0 UV-I 165 W/m 0,0 km/h (0 Bft)
27.08.2014 18:32 20,8 C 17,8 C 61 % 1015,8 hPa 0,0 l/m 2 min 0 min 0,0 UV-I 154 W/m 3,5 km/h (1 Bft)
27.08.2014 18:34 20,8 C 17,8 C 60 % 1015,8 hPa 0,0 l/m 2 min 0 min 0,0 UV-I 188 W/m 10,7 km/h (2 Bft)
27.08.2014 18:36 20,8 C 17,8 C 60 % 1015,7 hPa 0,0 l/m 2 min 0 min 0,0 UV-I 181 W/m 21,3 km/h (4 Bft)
27.08.2014 18:38 20,8 C 17,8 C 61 % 1015,8 hPa 0,0 l/m 2 min 0 min 0,0 UV-I 180 W/m 3,5 km/h (1 Bft)
27.08.2014 18:40 20,7 C 17,8 C 60 % 1015,7 hPa 0,0 l/m 0 min 0 min 0,0 UV-I 126 W/m 0,0 km/h (0 Bft)
27.08.2014 18:42 20,6 C 17,8 C 61 % 1015,8 hPa 0,0 l/m 0 min 0 min 0,0 UV-I 126 W/m 0,0 km/h (0 Bft)
27.08.2014 18:44 20,5 C 17,8 C 61 % 1015,7 hPa 0,0 l/m 2 min 0 min 0,0 UV-I 138 W/m 0,0 km/h (0 Bft)
27.08.2014 18:46 20,5 C 17,2 C 62 % 1015,7 hPa 0,0 l/m 0 min 0 min 0,0 UV-I 127 W/m 0,0 km/h (0 Bft)
27.08.2014 18:48 20,4 C 17,2 C 62 % 1015,7 hPa 0,0 l/m 0 min 0 min 0,0 UV-I 113 W/m 21,3 km/h (4 Bft)
27.08.2014 18:50 20,3 C 17,2 C 63 % 1015,7 hPa 0,0 l/m 0 min 0 min 0,0 UV-I 97 W/m 0,0 km/h (0 Bft)
27.08.2014 18:52 20,3 C 17,2 C 63 % 1015,7 hPa 0,0 l/m 0 min 0 min 0,0 UV-I 78 W/m 0,0 km/h (0 Bft)
27.08.2014 18:54 20,3 C 17,2 C 64 % 1015,7 hPa 0,0 l/m 0 min 0 min 0,0 UV-I 59 W/m 0,0 km/h (0 Bft)
27.08.2014 18:56 20,2 C 17,2 C 63 % 1015,6 hPa 0,0 l/m 0 min 0 min 0,0 UV-I 65 W/m 0,0 km/h (0 Bft)
27.08.2014 18:58 20,1 C 17,2 C 63 % 1015,7 hPa 0,0 l/m 0 min 0 min 0,0 UV-I 90 W/m 0,0 km/h (0 Bft)
27.08.2014 19:00 20,0 C 17,2 C 63 % 1015,7 hPa 0,0 l/m 2 min 0 min 0,0 UV-I 112 W/m 10,7 km/h (2 Bft)
27.08.2014 19:02 19,9 C 17,2 C 63 % 1015,7 hPa 0,0 l/m 2 min 0 min 0,0 UV-I 116 W/m 10,7 km/h (2 Bft)
27.08.2014 19:04 19,9 C 17,2 C 64 % 1015,6 hPa 0,0 l/m 0 min 0 min 0,0 UV-I 102 W/m 3,5 km/h (1 Bft)
27.08.2014 19:06 19,9 C 17,2 C 63 % 1015,6 hPa 0,0 l/m 2 min 0 min 0,0 UV-I 114 W/m 0,0 km/h (0 Bft)
27.08.2014 19:08 20,0 C 17,2 C 63 % 1015,6 hPa 0,0 l/m 2 min 0 min 0,0 UV-I 110 W/m 3,5 km/h (1 Bft)
27.08.2014 19:10 20,0 C 16,7 C 64 % 1015,7 hPa 0,0 l/m 2 min 0 min 0,0 UV-I 100 W/m 0,0 km/h (0 Bft)
27.08.2014 19:12 19,9 C 16,7 C 65 % 1015,6 hPa 0,0 l/m 2 min 0 min 0,0 UV-I 100 W/m 0,0 km/h (0 Bft)
27.08.2014 19:14 19,9 C 16,7 C 64 % 1015,6 hPa 0,0 l/m 0 min 0 min 0,0 UV-I 90 W/m 0,0 km/h (0 Bft)
27.08.2014 19:16 19,9 C 16,7 C 65 % 1015,6 hPa 0,0 l/m 0 min 0 min 0,0 UV-I 73 W/m 10,7 km/h (2 Bft)
27.08.2014 19:18 19,9 C 16,7 C 64 % 1015,7 hPa 0,0 l/m 0 min 0 min 0,0 UV-I 70 W/m 0,0 km/h (0 Bft)
27.08.2014 19:20 19,9 C 16,7 C 64 % 1015,6 hPa 0,0 l/m 0 min 0 min 0,0 UV-I 74 W/m 0,0 km/h (0 Bft)
27.08.2014 19:22 19,9 C 16,7 C 65 % 1015,6 hPa 0,0 l/m 0 min 0 min 0,0 UV-I 75 W/m 0,0 km/h (0 Bft)
27.08.2014 19:24 19,8 C 16,7 C 65 % 1015,6 hPa 0,0 l/m 0 min 0 min 0,0 UV-I 63 W/m 7,1 km/h (2 Bft)
27.08.2014 19:26 19,8 C 16,7 C 65 % 1015,6 hPa 0,0 l/m 0 min 0 min 0,0 UV-I 54 W/m 3,5 km/h (1 Bft)
27.08.2014 19:28 19,8 C 16,7 C 65 % 1015,6 hPa 0,0 l/m 0 min 0 min 0,0 UV-I 54 W/m 7,1 km/h (2 Bft)
27.08.2014 19:30 19,8 C 16,7 C 64 % 1015,6 hPa 0,0 l/m 0 min 0 min 0,0 UV-I 50 W/m 17,7 km/h (3 Bft)
27.08.2014 19:32 19,8 C 16,7 C 66 % 1015,6 hPa 0,0 l/m 0 min 0 min 0,0 UV-I 48 W/m 0,0 km/h (0 Bft)
27.08.2014 19:34 19,7 C 16,7 C 65 % 1015,6 hPa 0,0 l/m 0 min 0 min 0,0 UV-I 47 W/m 0,0 km/h (0 Bft)
27.08.2014 19:36 19,7 C 16,7 C 66 % 1015,6 hPa 0,0 l/m 0 min 0 min 0,0 UV-I 46 W/m 3,5 km/h (1 Bft)
27.08.2014 19:38 19,6 C 16,7 C 66 % 1015,6 hPa 0,0 l/m 0 min 0 min 0,0 UV-I 45 W/m 0,0 km/h (0 Bft)
27.08.2014 19:40 19,6 C 16,1 C 66 % 1015,6 hPa 0,0 l/m 0 min 0 min 0,0 UV-I 43 W/m 0,0 km/h (0 Bft)
27.08.2014 19:42 19,6 C 16,1 C 65 % 1015,6 hPa 0,0 l/m 0 min 0 min 0,0 UV-I 41 W/m 0,0 km/h (0 Bft)
27.08.2014 19:44 19,5 C 16,1 C 66 % 1015,6 hPa 0,0 l/m 0 min 0 min 0,0 UV-I 40 W/m 0,0 km/h (0 Bft)
27.08.2014 19:46 19,4 C 16,1 C 67 % 1015,6 hPa 0,0 l/m 0 min 0 min 0,0 UV-I 39 W/m 0,0 km/h (0 Bft)
27.08.2014 19:48 19,4 C 16,1 C 67 % 1015,6 hPa 0,0 l/m 0 min 0 min 0,0 UV-I 37 W/m 0,0 km/h (0 Bft)
27.08.2014 19:50 19,3 C 16,1 C 69 % 1015,6 hPa 0,0 l/m 0 min 0 min 0,0 UV-I 35 W/m 0,0 km/h (0 Bft)
27.08.2014 19:52 19,3 C 16,1 C 69 % 1015,6 hPa 0,0 l/m 0 min 0 min 0,0 UV-I 33 W/m 0,0 km/h (0 Bft)
27.08.2014 19:54 19,1 C 16,1 C 69 % 1015,7 hPa 0,0 l/m 0 min 0 min 0,0 UV-I 31 W/m 0,0 km/h (0 Bft)
27.08.2014 19:56 19,1 C 15,6 C 70 % 1015,6 hPa 0,0 l/m 0 min 0 min 0,0 UV-I 29 W/m 0,0 km/h (0 Bft)
27.08.2014 19:58 18,9 C 15,6 C 70 % 1015,7 hPa 0,0 l/m 0 min 0 min 0,0 UV-I 26 W/m 0,0 km/h (0 Bft)
27.08.2014 20:00 18,8 C 15,6 C 71 % 1015,7 hPa 0,0 l/m 0 min 0 min 0,0 UV-I 25 W/m 0,0 km/h (0 Bft)
27.08.2014 20:02 18,7 C 15,6 C 72 % 1015,7 hPa 0,0 l/m 0 min 0 min 0,0 UV-I 24 W/m 0,0 km/h (0 Bft)
27.08.2014 20:04 18,6 C 15,6 C 72 % 1015,7 hPa 0,0 l/m 0 min 0 min 0,0 UV-I 22 W/m 0,0 km/h (0 Bft)
27.08.2014 20:06 18,5 C 15,6 C 72 % 1015,7 hPa 0,0 l/m 0 min 0 min 0,0 UV-I 20 W/m 0,0 km/h (0 Bft)
27.08.2014 20:08 18,4 C 15,0 C 72 % 1015,7 hPa 0,0 l/m 0 min 0 min 0,0 UV-I 19 W/m 0,0 km/h (0 Bft)
27.08.2014 20:10 18,3 C 15,0 C 72 % 1015,7 hPa 0,0 l/m 0 min 0 min 0,0 UV-I 18 W/m 0,0 km/h (0 Bft)
27.08.2014 20:12 18,2 C 15,0 C 73 % 1015,7 hPa 0,0 l/m 0 min 0 min 0,0 UV-I 16 W/m 0,0 km/h (0 Bft)
27.08.2014 20:14 18,1 C 15,0 C 74 % 1015,7 hPa 0,0 l/m 0 min 0 min 0,0 UV-I 15 W/m 0,0 km/h (0 Bft)
27.08.2014 20:16 18,0 C 15,0 C 74 % 1015,7 hPa 0,0 l/m 2 min 0 min 0,0 UV-I 13 W/m 0,0 km/h (0 Bft)
27.08.2014 20:18 17,8 C 15,0 C 76 % 1015,7 hPa 0,0 l/m 0 min 0 min 0,0 UV-I 12 W/m 0,0 km/h (0 Bft)
27.08.2014 20:20 17,6 C 14,4 C 77 % 1015,8 hPa 0,0 l/m 0 min 0 min 0,0 UV-I 11 W/m 0,0 km/h (0 Bft)
27.08.2014 20:22 17,5 C 14,4 C 77 % 1015,8 hPa 0,0 l/m 0 min 0 min 0,0 UV-I 10 W/m 0,0 km/h (0 Bft)
27.08.2014 20:24 17,4 C 14,4 C 78 % 1015,8 hPa 0,0 l/m 0 min 0 min 0,0 UV-I 8 W/m 0,0 km/h (0 Bft)
27.08.2014 20:26 17,3 C 14,4 C 78 % 1015,8 hPa 0,0 l/m 0 min 0 min 0,0 UV-I 0 W/m 0,0 km/h (0 Bft)
27.08.2014 20:28 17,2 C 14,4 C 78 % 1015,7 hPa 0,0 l/m 0 min 0 min 0,0 UV-I 0 W/m 0,0 km/h (0 Bft)
27.08.2014 20:30 17,1 C 13,9 C 80 % 1015,7 hPa 0,0 l/m 0 min 0 min 0,0 UV-I 0 W/m 0,0 km/h (0 Bft)
27.08.2014 20:32 16,9 C 13,9 C 80 % 1015,7 hPa 0,0 l/m 0 min 0 min 0,0 UV-I 0 W/m 0,0 km/h (0 Bft)
27.08.2014 20:34 16,8 C 13,9 C 81 % 1015,7 hPa 0,0 l/m 0 min 0 min 0,0 UV-I 0 W/m 0,0 km/h (0 Bft)
27.08.2014 20:36 16,7 C 13,9 C 81 % 1015,7 hPa 0,0 l/m 0 min 0 min 0,0 UV-I 0 W/m 0,0 km/h (0 Bft)
27.08.2014 20:38 16,6 C 13,9 C 81 % 1015,7 hPa 0,0 l/m 0 min 0 min 0,0 UV-I 0 W/m 0,0 km/h (0 Bft)
27.08.2014 20:40 16,5 C 13,9 C 81 % 1015,7 hPa 0,0 l/m 0 min 0 min 0,0 UV-I 0 W/m 0,0 km/h (0 Bft)
27.08.2014 20:42 16,4 C 13,9 C 83 % 1015,7 hPa 0,0 l/m 0 min 0 min 0,0 UV-I 0 W/m 0,0 km/h (0 Bft)
27.08.2014 20:44 16,4 C 13,9 C 83 % 1015,7 hPa 0,0 l/m 0 min 0 min 0,0 UV-I 0 W/m 0,0 km/h (0 Bft)
27.08.2014 20:46 16,3 C 13,3 C 84 % 1015,7 hPa 0,0 l/m 0 min 0 min 0,0 UV-I 0 W/m 0,0 km/h (0 Bft)
27.08.2014 20:48 16,2 C 13,3 C 84 % 1015,7 hPa 0,0 l/m 0 min 0 min 0,0 UV-I 0 W/m 0,0 km/h (0 Bft)
27.08.2014 20:50 16,1 C 13,3 C 84 % 1015,7 hPa 0,0 l/m 0 min 0 min 0,0 UV-I 0 W/m 0,0 km/h (0 Bft)
27.08.2014 20:52 16,1 C 13,3 C 84 % 1015,8 hPa 0,0 l/m 0 min 0 min 0,0 UV-I 0 W/m 0,0 km/h (0 Bft)
27.08.2014 20:54 16,1 C 13,3 C 84 % 1015,7 hPa 0,0 l/m 0 min 0 min 0,0 UV-I 0 W/m 0,0 km/h (0 Bft)
27.08.2014 20:56 16,0 C 13,3 C 84 % 1015,7 hPa 0,0 l/m 0 min 0 min 0,0 UV-I 0 W/m 0,0 km/h (0 Bft)
27.08.2014 20:58 16,0 C 13,3 C 84 % 1015,7 hPa 0,0 l/m 0 min 0 min 0,0 UV-I 0 W/m 0,0 km/h (0 Bft)
27.08.2014 21:00 15,9 C 13,3 C 85 % 1015,7 hPa 0,0 l/m 0 min 0 min 0,0 UV-I 0 W/m 0,0 km/h (0 Bft)
27.08.2014 21:02 15,8 C 13,3 C 85 % 1015,7 hPa 0,0 l/m 0 min 0 min 0,0 UV-I 0 W/m 0,0 km/h (0 Bft)
27.08.2014 21:04 15,7 C 13,3 C 85 % 1015,7 hPa 0,0 l/m 0 min 0 min 0,0 UV-I 0 W/m 0,0 km/h (0 Bft)
27.08.2014 21:06 15,7 C 13,3 C 86 % 1015,7 hPa 0,0 l/m 0 min 0 min 0,0 UV-I 0 W/m 0,0 km/h (0 Bft)
27.08.2014 21:08 15,6 C 12,8 C 86 % 1015,7 hPa 0,0 l/m 0 min 0 min 0,0 UV-I 0 W/m 0,0 km/h (0 Bft)
27.08.2014 21:10 15,6 C 12,8 C 86 % 1015,8 hPa 0,0 l/m 0 min 0 min 0,0 UV-I 0 W/m 0,0 km/h (0 Bft)
27.08.2014 21:12 15,5 C 12,8 C 86 % 1015,8 hPa 0,0 l/m 0 min 0 min 0,0 UV-I 0 W/m 0,0 km/h (0 Bft)
27.08.2014 21:14 15,4 C 12,8 C 86 % 1015,8 hPa 0,0 l/m 0 min 0 min 0,0 UV-I 0 W/m 0,0 km/h (0 Bft)
27.08.2014 21:16 15,4 C 12,8 C 86 % 1015,8 hPa 0,0 l/m 0 min 0 min 0,0 UV-I 0 W/m 0,0 km/h (0 Bft)
27.08.2014 21:18 15,3 C 12,8 C 87 % 1015,8 hPa 0,0 l/m 0 min 0 min 0,0 UV-I 0 W/m 0,0 km/h (0 Bft)
27.08.2014 21:20 15,3 C 12,8 C 87 % 1015,8 hPa 0,0 l/m 0 min 0 min 0,0 UV-I 0 W/m 0,0 km/h (0 Bft)
27.08.2014 21:22 15,2 C 12,8 C 87 % 1015,8 hPa 0,0 l/m 0 min 0 min 0,0 UV-I 0 W/m 0,0 km/h (0 Bft)
27.08.2014 21:24 15,2 C 12,8 C 88 % 1015,9 hPa 0,0 l/m 0 min 0 min 0,0 UV-I 0 W/m 0,0 km/h (0 Bft)
27.08.2014 21:26 15,2 C 12,8 C 88 % 1015,8 hPa 0,0 l/m 0 min 0 min 0,0 UV-I 0 W/m 0,0 km/h (0 Bft)
27.08.2014 21:28 15,1 C 12,8 C 88 % 1015,9 hPa 0,0 l/m 0 min 0 min 0,0 UV-I 0 W/m 0,0 km/h (0 Bft)
27.08.2014 21:30 15,1 C 12,8 C 88 % 1015,9 hPa 0,0 l/m 0 min 0 min 0,0 UV-I 0 W/m 0,0 km/h (0 Bft)
27.08.2014 21:32 15,1 C 12,8 C 88 % 1015,9 hPa 0,0 l/m 0 min 0 min 0,0 UV-I 0 W/m 0,0 km/h (0 Bft)
27.08.2014 21:34 15,1 C 12,8 C 88 % 1015,9 hPa 0,0 l/m 0 min 0 min 0,0 UV-I 0 W/m 0,0 km/h (0 Bft)
27.08.2014 21:36 15,1 C 12,8 C 88 % 1015,9 hPa 0,0 l/m 0 min 0 min 0,0 UV-I 0 W/m 0,0 km/h (0 Bft)
27.08.2014 21:38 15,1 C 12,8 C 88 % 1015,9 hPa 0,0 l/m 0 min 0 min 0,0 UV-I 0 W/m 0,0 km/h (0 Bft)
27.08.2014 21:40 15,0 C 12,8 C 88 % 1015,9 hPa 0,0 l/m 0 min 0 min 0,0 UV-I 0 W/m 0,0 km/h (0 Bft)
27.08.2014 21:42 15,0 C 12,8 C 88 % 1015,9 hPa 0,0 l/m 0 min 0 min 0,0 UV-I 0 W/m 0,0 km/h (0 Bft)
27.08.2014 21:44 14,9 C 12,2 C 88 % 1015,9 hPa 0,0 l/m 0 min 0 min 0,0 UV-I 0 W/m 0,0 km/h (0 Bft)
27.08.2014 21:46 14,9 C 12,2 C 88 % 1015,9 hPa 0,0 l/m 0 min 0 min 0,0 UV-I 0 W/m 0,0 km/h (0 Bft)
27.08.2014 21:48 14,8 C 12,2 C 88 % 1015,9 hPa 0,0 l/m 0 min 0 min 0,0 UV-I 0 W/m 0,0 km/h (0 Bft)
27.08.2014 21:50 14,8 C 12,2 C 88 % 1015,9 hPa 0,0 l/m 0 min 0 min 0,0 UV-I 0 W/m 0,0 km/h (0 Bft)
27.08.2014 21:52 14,7 C 12,2 C 88 % 1015,9 hPa 0,0 l/m 0 min 0 min 0,0 UV-I 0 W/m 0,0 km/h (0 Bft)
27.08.2014 21:54 14,7 C 12,2 C 88 % 1015,9 hPa 0,0 l/m 0 min 0 min 0,0 UV-I 0 W/m 0,0 km/h (0 Bft)
27.08.2014 21:56 14,6 C 12,2 C 88 % 1016,0 hPa 0,0 l/m 0 min 0 min 0,0 UV-I 0 W/m 0,0 km/h (0 Bft)
27.08.2014 21:58 14,6 C 12,2 C 88 % 1015,9 hPa 0,0 l/m 0 min 0 min 0,0 UV-I 0 W/m 0,0 km/h (0 Bft)
27.08.2014 22:00 14,6 C 12,2 C 88 % 1015,9 hPa 0,0 l/m 0 min 0 min 0,0 UV-I 0 W/m 0,0 km/h (0 Bft)
27.08.2014 22:02 14,6 C 12,2 C 89 % 1015,9 hPa 0,0 l/m 0 min 0 min 0,0 UV-I 0 W/m 0,0 km/h (0 Bft)
27.08.2014 22:04 14,5 C 12,2 C 89 % 1015,9 hPa 0,0 l/m 0 min 0 min 0,0 UV-I 0 W/m 0,0 km/h (0 Bft)
27.08.2014 22:06 14,5 C 12,2 C 89 % 1015,9 hPa 0,0 l/m 0 min 0 min 0,0 UV-I 0 W/m 0,0 km/h (0 Bft)
27.08.2014 22:08 14,4 C 12,2 C 89 % 1015,9 hPa 0,0 l/m 0 min 0 min 0,0 UV-I 0 W/m 0,0 km/h (0 Bft)
27.08.2014 22:10 14,4 C 12,2 C 89 % 1015,9 hPa 0,0 l/m 0 min 0 min 0,0 UV-I 0 W/m 0,0 km/h (0 Bft)
27.08.2014 22:12 14,4 C 12,2 C 89 % 1015,9 hPa 0,0 l/m 0 min 0 min 0,0 UV-I 0 W/m 0,0 km/h (0 Bft)
27.08.2014 22:14 14,3 C 12,2 C 89 % 1015,9 hPa 0,0 l/m 0 min 0 min 0,0 UV-I 0 W/m 0,0 km/h (0 Bft)
27.08.2014 22:16 14,3 C 12,2 C 89 % 1016,0 hPa 0,0 l/m 0 min 0 min 0,0 UV-I 0 W/m 0,0 km/h (0 Bft)
27.08.2014 22:18 14,2 C 12,2 C 90 % 1016,0 hPa 0,0 l/m 0 min 0 min 0,0 UV-I 0 W/m 0,0 km/h (0 Bft)
27.08.2014 22:20 14,2 C 12,2 C 90 % 1016,0 hPa 0,0 l/m 0 min 0 min 0,0 UV-I 0 W/m 0,0 km/h (0 Bft)
27.08.2014 22:22 14,2 C 12,2 C 90 % 1016,0 hPa 0,0 l/m 0 min 0 min 0,0 UV-I 0 W/m 0,0 km/h (0 Bft)
27.08.2014 22:24 14,2 C 12,2 C 90 % 1015,9 hPa 0,0 l/m 0 min 0 min 0,0 UV-I 0 W/m 0,0 km/h (0 Bft)
27.08.2014 22:26 14,2 C 12,2 C 90 % 1015,9 hPa 0,0 l/m 0 min 0 min 0,0 UV-I 0 W/m 0,0 km/h (0 Bft)
27.08.2014 22:28 14,2 C 12,2 C 90 % 1015,9 hPa 0,0 l/m 0 min 0 min 0,0 UV-I 0 W/m 0,0 km/h (0 Bft)
27.08.2014 22:30 14,2 C 12,2 C 90 % 1015,9 hPa 0,0 l/m 0 min 0 min 0,0 UV-I 0 W/m 0,0 km/h (0 Bft)
27.08.2014 22:32 14,2 C 11,7 C 92 % 1016,0 hPa 0,0 l/m 0 min 0 min 0,0 UV-I 0 W/m 0,0 km/h (0 Bft)
27.08.2014 22:34 14,1 C 11,7 C 90 % 1015,9 hPa 0,0 l/m 0 min 0 min 0,0 UV-I 0 W/m 0,0 km/h (0 Bft)
27.08.2014 22:36 14,1 C 11,7 C 90 % 1015,9 hPa 0,0 l/m 0 min 0 min 0,0 UV-I 0 W/m 0,0 km/h (0 Bft)
27.08.2014 22:38 14,1 C 11,7 C 90 % 1015,9 hPa 0,0 l/m 0 min 0 min 0,0 UV-I 0 W/m 0,0 km/h (0 Bft)
27.08.2014 22:40 14,1 C 11,7 C 90 % 1015,9 hPa 0,0 l/m 0 min 0 min 0,0 UV-I 0 W/m 0,0 km/h (0 Bft)
27.08.2014 22:42 14,0 C 11,7 C 91 % 1015,9 hPa 0,0 l/m 0 min 0 min 0,0 UV-I 0 W/m 0,0 km/h (0 Bft)
27.08.2014 22:44 14,0 C 11,7 C 91 % 1015,9 hPa 0,0 l/m 0 min 0 min 0,0 UV-I 0 W/m 0,0 km/h (0 Bft)
27.08.2014 22:46 13,9 C 11,7 C 91 % 1015,9 hPa 0,0 l/m 0 min 0 min 0,0 UV-I 0 W/m 0,0 km/h (0 Bft)
27.08.2014 22:48 13,9 C 11,7 C 91 % 1015,8 hPa 0,0 l/m 0 min 0 min 0,0 UV-I 0 W/m 0,0 km/h (0 Bft)
27.08.2014 22:50 13,9 C 11,7 C 91 % 1015,9 hPa 0,0 l/m 0 min 0 min 0,0 UV-I 0 W/m 0,0 km/h (0 Bft)
27.08.2014 22:52 13,8 C 11,7 C 91 % 1015,9 hPa 0,0 l/m 0 min 0 min 0,0 UV-I 0 W/m 0,0 km/h (0 Bft)
27.08.2014 22:54 13,8 C 11,7 C 91 % 1015,8 hPa 0,0 l/m 0 min 0 min 0,0 UV-I 0 W/m 0,0 km/h (0 Bft)
27.08.2014 22:56 13,8 C 11,7 C 91 % 1015,9 hPa 0,0 l/m 0 min 0 min 0,0 UV-I 0 W/m 0,0 km/h (0 Bft)
27.08.2014 22:58 13,7 C 11,7 C 91 % 1015,9 hPa 0,0 l/m 0 min 0 min 0,0 UV-I 0 W/m 0,0 km/h (0 Bft)
27.08.2014 23:00 13,7 C 11,7 C 91 % 1015,9 hPa 0,0 l/m 0 min 0 min 0,0 UV-I 0 W/m 0,0 km/h (0 Bft)
27.08.2014 23:02 13,7 C 11,7 C 91 % 1015,9 hPa 0,0 l/m 0 min 0 min 0,0 UV-I 0 W/m 0,0 km/h (0 Bft)
27.08.2014 23:04 13,7 C 11,7 C 92 % 1015,9 hPa 0,0 l/m 0 min 0 min 0,0 UV-I 0 W/m 0,0 km/h (0 Bft)
27.08.2014 23:06 13,6 C 11,7 C 92 % 1015,9 hPa 0,0 l/m 0 min 0 min 0,0 UV-I 0 W/m 0,0 km/h (0 Bft)
27.08.2014 23:08 13,6 C 11,7 C 92 % 1015,9 hPa 0,0 l/m 0 min 0 min 0,0 UV-I 0 W/m 0,0 km/h (0 Bft)
27.08.2014 23:10 13,6 C 11,7 C 92 % 1015,9 hPa 0,0 l/m 0 min 0 min 0,0 UV-I 0 W/m 0,0 km/h (0 Bft)
27.08.2014 23:12 13,6 C 11,7 C 92 % 1015,9 hPa 0,0 l/m 0 min 0 min 0,0 UV-I 0 W/m 0,0 km/h (0 Bft)
27.08.2014 23:14 13,5 C 11,7 C 92 % 1016,0 hPa 0,0 l/m 0 min 0 min 0,0 UV-I 0 W/m 0,0 km/h (0 Bft)
27.08.2014 23:16 13,5 C 11,7 C 92 % 1016,0 hPa 0,0 l/m 0 min 0 min 0,0 UV-I 0 W/m 0,0 km/h (0 Bft)
27.08.2014 23:18 13,4 C 11,7 C 92 % 1016,0 hPa 0,0 l/m 0 min 0 min 0,0 UV-I 0 W/m 0,0 km/h (0 Bft)
27.08.2014 23:20 13,4 C 11,7 C 92 % 1016,0 hPa 0,0 l/m 0 min 0 min 0,0 UV-I 0 W/m 0,0 km/h (0 Bft)
27.08.2014 23:22 13,4 C 11,7 C 92 % 1016,1 hPa 0,0 l/m 0 min 0 min 0,0 UV-I 0 W/m 0,0 km/h (0 Bft)
27.08.2014 23:24 13,5 C 11,7 C 92 % 1016,1 hPa 0,0 l/m 0 min 0 min 0,0 UV-I 0 W/m 0,0 km/h (0 Bft)
27.08.2014 23:26 13,5 C 11,7 C 92 % 1016,1 hPa 0,0 l/m 0 min 0 min 0,0 UV-I 0 W/m 0,0 km/h (0 Bft)
27.08.2014 23:28 13,5 C 11,7 C 92 % 1016,0 hPa 0,0 l/m 0 min 0 min 0,0 UV-I 0 W/m 0,0 km/h (0 Bft)
27.08.2014 23:30 13,5 C 11,7 C 92 % 1016,1 hPa 0,0 l/m 0 min 0 min 0,0 UV-I 0 W/m 0,0 km/h (0 Bft)
27.08.2014 23:32 13,5 C 11,7 C 92 % 1016,1 hPa 0,0 l/m 0 min 0 min 0,0 UV-I 0 W/m 0,0 km/h (0 Bft)
27.08.2014 23:34 13,5 C 11,7 C 92 % 1016,1 hPa 0,0 l/m 0 min 0 min 0,0 UV-I 0 W/m 0,0 km/h (0 Bft)
27.08.2014 23:36 13,4 C 11,7 C 92 % 1016,1 hPa 0,0 l/m 0 min 0 min 0,0 UV-I 0 W/m 0,0 km/h (0 Bft)
27.08.2014 23:38 13,4 C 11,7 C 92 % 1016,2 hPa 0,0 l/m 0 min 0 min 0,0 UV-I 0 W/m 0,0 km/h (0 Bft)
27.08.2014 23:40 13,5 C 11,7 C 92 % 1016,2 hPa 0,0 l/m 0 min 0 min 0,0 UV-I 0 W/m 0,0 km/h (0 Bft)
27.08.2014 23:42 13,5 C 11,7 C 92 % 1016,2 hPa 0,0 l/m 0 min 0 min 0,0 UV-I 0 W/m 0,0 km/h (0 Bft)
27.08.2014 23:44 13,5 C 11,7 C 92 % 1016,2 hPa 0,0 l/m 0 min 0 min 0,0 UV-I 0 W/m 0,0 km/h (0 Bft)
27.08.2014 23:46 13,5 C 11,7 C 92 % 1016,1 hPa 0,0 l/m 0 min 0 min 0,0 UV-I 0 W/m 0,0 km/h (0 Bft)
27.08.2014 23:48 13,6 C 11,7 C 92 % 1016,1 hPa 0,0 l/m 0 min 0 min 0,0 UV-I 0 W/m 0,0 km/h (0 Bft)
27.08.2014 23:50 13,6 C 11,7 C 92 % 1016,0 hPa 0,0 l/m 0 min 0 min 0,0 UV-I 0 W/m 0,0 km/h (0 Bft)
27.08.2014 23:52 13,6 C 11,7 C 92 % 1016,1 hPa 0,0 l/m 0 min 0 min 0,0 UV-I 0 W/m 0,0 km/h (0 Bft)
27.08.2014 23:54 13,6 C 11,7 C 92 % 1016,0 hPa 0,0 l/m 0 min 0 min 0,0 UV-I 0 W/m 0,0 km/h (0 Bft)
27.08.2014 23:56 13,6 C 11,7 C 92 % 1016,0 hPa 0,0 l/m 0 min 0 min 0,0 UV-I 0 W/m 0,0 km/h (0 Bft)
27.08.2014 23:58 13,6 C 11,7 C 92 % 1016,1 hPa 0,0 l/m 0 min 0 min 0,0 UV-I 0 W/m 0,0 km/h (0 Bft)
_ Min-Zeit 07:22 06:10 16:48 00:00 - - - - - 00:00
Minimum _ 8,3 C 7,2 C 50 % 1009,3 hPa - - - - - 0,0 km/h (0 Bft)
_ Max-Zeit 15:52 16:28 00:00 12:30 07:50 07:06 08:24 13:38 13:18 15:54
Maximum _ 22,2 C 21,1 C 99 % 1016,3 hPa 0,2 l/m 2 min 2 min 3,9 UV-I 751 W/m 56,5 km/h
S-SW (7 Bft)
Durchschnitt _ 15,5 C 13,7 C 82 % 1014,4 hPa #0,2 l/m #11:33 h #2 min. 2,4 UV-I 403 W/m 7,6 km/h (2 Bft)
© 2014 W. Hausmann